DW4078 Weather Reports


Display with metric or nautical units.
time (UTC)temp
F
wind
direction
speed
MPH
gust
MPH
rain 1hr
in
rain 24hr
in
rain mn
in
humidity
%
barometer
mb
20260901052204 75 128 1.0 4.0 0.00 0.00 0.00 88 1017.1
20260901052124 75 127 1.0 4.0 0.00 0.00 0.00 88 1017.1
20260901052025 75 126 1.0 4.0 0.00 0.00 0.00 89 1017.1
20260901051904 75 125 1.0 4.0 0.00 0.00 0.00 89 1017.1
20260901051804 75 125 1.0 4.0 0.00 0.00 0.00 89 1017.0
20260901051702 75 124 1.0 4.0 0.00 0.00 0.00 89 1017.0
20260901051603 75 125 1.0 4.0 0.00 0.00 0.00 89 1017.0
20260901051504 75 127 1.0 4.0 0.00 0.00 0.00 89 1016.9
20260901051404 75 128 1.0 4.0 0.00 0.00 0.00 89 1017.2
20260901051304 75 128 1.0 4.0 0.00 0.00 0.00 89 1017.2
20260901051202 75 125 1.0 4.0 0.00 0.00 0.00 89 1017.2
20260901051103 74 126 1.0 4.0 0.00 0.00 0.00 89 1017.2
20260901051004 74 125 1.0 2.0 0.00 0.00 0.00 89 1017.2
20260901050925 74 125 1.0 2.0 0.00 0.00 0.00 89 1017.2
20260901050804 74 124 1.0 2.0 0.00 0.00 0.00 89 1017.2
20260901050702 74 125 1.0 2.0 0.00 0.00 0.00 89 1017.2
20260901050604 74 124 1.0 2.0 0.00 0.00 0.00 89 1017.1
20260901050503 74 121 0.0 2.0 0.00 0.00 0.00 89 1017.2
20260901050403 74 114 0.0 3.0 0.00 0.00 0.00 89 1017.1
20260901050303 74 120 1.0 3.0 0.00 0.00 0.00 89 1017.1
20260901050204 74 123 1.0 3.0 0.00 0.00 0.00 89 1017.2
20260901050104 74 123 1.0 3.0 0.00 0.00 0.00 89 1017.1
20260901050004 74 123 1.0 3.0 0.00 0.00 0.00 89 1017.2
20260901045904 74 123 1.0 3.0 0.00 0.00 0.00 89 1017.1
20260901045825 74 123 1.0 3.0 0.00 0.00 0.00 89 1017.2
20260901045703 74 122 1.0 3.0 0.00 0.00 0.00 89 1017.1
20260901045623 74 123 1.0 3.0 0.00 0.00 0.00 89 1017.3
20260901045504 74 123 1.0 3.0 0.00 0.00 0.00 89 1017.2
20260901045423 74 124 1.0 3.0 0.00 0.00 0.00 89 1017.2
20260901045324 74 121 1.0 3.0 0.00 0.00 0.00 89 1017.3
20260901045203 74 120 1.0 3.0 0.00 0.00 0.00 89 1017.3
20260901045103 74 120 0.0 2.0 0.00 0.00 0.00 89 1017.3
20260901045003 74 120 0.0 2.0 0.00 0.00 0.00 89 1017.3
20260901044924 74 120 0.0 2.0 0.00 0.00 0.00 89 1017.2
20260901044804 74 125 0.0 2.0 0.00 0.00 0.00 89 1017.2
20260901044702 74 126 0.0 2.0 0.00 0.00 0.00 89 1017.2
20260901044602 74 117 0.0 1.0 0.00 0.00 0.00 89 1017.1
20260901044505 74 120 0.0 1.0 0.00 0.00 0.00 89 1017.3
20260901044402 74 122 0.0 1.0 0.00 0.00 0.00 89 1017.2
20260901044303 74 120 0.0 1.0 0.00 0.00 0.00 89 1017.1
20260901044203 75 123 0.0 1.0 0.00 0.00 0.00 89 1017.2
20260901044104 75 124 0.0 1.0 0.00 0.00 0.00 89 1017.0
20260901044003 75 124 0.0 1.0 0.00 0.00 0.00 89 1017.2
20260901043903 75 123 0.0 1.0 0.00 0.00 0.00 89 1017.4
20260901043803 75 123 0.0 1.0 0.00 0.00 0.00 89 1017.2
20260901043725 75 123 0.0 1.0 0.00 0.00 0.00 89 1017.2
20260901043602 75 123 0.0 3.0 0.00 0.00 0.00 89 1017.1
20260901043502 75 124 0.0 3.0 0.00 0.00 0.00 89 1017.2
20260901043424 75 125 0.0 3.0 0.00 0.00 0.00 89 1017.2
20260901043302 74 128 0.0 3.0 0.00 0.00 0.00 89 1017.1
20260901043204 75 125 0.0 3.0 0.00 0.00 0.00 89 1017.1
20260901043104 75 124 0.0 3.0 0.00 0.00 0.00 89 1017.2
20260901043003 75 124 0.0 3.0 0.00 0.00 0.00 89 1016.9
20260901042904 75 125 0.0 3.0 0.00 0.00 0.00 89 1017.1
20260901042802 75 124 0.0 3.0 0.00 0.00 0.00 89 1017.0
20260901042703 75 126 1.0 3.0 0.00 0.00 0.00 89 1017.0
20260901042604 75 125 1.0 3.0 0.00 0.00 0.00 89 1017.0
20260901042504 74 125 1.0 3.0 0.00 0.00 0.00 89 1017.1
20260901042404 74 121 1.0 3.0 0.00 0.00 0.00 89 1017.2
20260901042306 74 119 1.0 4.0 0.00 0.00 0.00 89 1017.1
20260901042204 74 119 1.0 4.0 0.00 0.00 0.00 89 1016.9
20260901042103 74 119 1.0 4.0 0.00 0.00 0.00 89 1017.1
20260901042002 74 121 1.0 4.0 0.00 0.00 0.00 90 1017.1
20260901041903 74 121 1.0 4.0 0.00 0.00 0.00 90 1017.2
20260901041803 74 121 1.0 4.0 0.00 0.00 0.00 90 1017.0
20260901041702 73 116 0.0 4.0 0.00 0.00 0.00 91 1017.1
20260901041603 73 117 0.0 4.0 0.00 0.00 0.00 91 1017.1
20260901041503 73 117 0.0 4.0 0.00 0.00 0.00 92 1017.0
20260901041404 72 118 0.0 4.0 0.00 0.00 0.00 92 1017.1
20260901041302 72 131 0.0 3.0 0.00 0.00 0.00 93 1017.1
20260901041204 72 131 0.0 3.0 0.00 0.00 0.00 93 1017.2
20260901041103 72 131 0.0 3.0 0.00 0.00 0.00 94 1017.1
20260901041003 72 132 0.0 1.0 0.00 0.00 0.00 94 1017.1
20260901040902 72 0 0.0 0.0 0.00 0.00 0.00 94 1017.2
20260901040803 72 0 0.0 0.0 0.00 0.00 0.00 94 1017.2
20260901040703 72 0 0.0 0.0 0.00 0.00 0.00 94 1017.2
20260901040603 72 0 0.0 0.0 0.00 0.00 0.00 94 1017.2
20260901040502 72 0 0.0 0.0 0.00 0.00 0.00 94 1017.2
20260901040404 72 0 0.0 0.0 0.00 0.00 0.00 94 1017.2
20260901040323 72 0 0.0 0.0 0.00 0.00 0.00 94 1017.2
20260901040203 72 0 0.0 0.0 0.00 0.00 0.00 94 1017.3
20260901040024 72 0 0.0 0.0 0.00 0.00 0.00 94 1017.2
20260901035904 72 0 0.0 0.0 0.00 0.00 0.00 94 1017.4
20260901035803 72 0 0.0 0.0 0.00 0.00 0.00 94 1017.4
20260901035703 72 0 0.0 0.0 0.00 0.00 0.00 94 1017.3
20260901035603 72 0 0.0 0.0 0.00 0.00 0.00 94 1017.3
20260901035503 72 0 0.0 0.0 0.00 0.00 0.00 94 1017.3
20260901035404 72 0 0.0 0.0 0.00 0.00 0.00 94 1017.3
20260901035305 72 0 0.0 0.0 0.00 0.00 0.00 94 1017.2
20260901035203 72 0 0.0 0.0 0.00 0.00 0.00 94 1017.3
20260901035102 72 0 0.0 0.0 0.00 0.00 0.00 94 1017.3
20260901035003 72 0 0.0 0.0 0.00 0.00 0.00 94 1017.5
20260901034925 72 0 0.0 0.0 0.00 0.00 0.00 94 1017.3
20260901034804 72 0 0.0 0.0 0.00 0.00 0.00 94 1017.3
20260901034702 72 0 0.0 0.0 0.00 0.00 0.00 94 1017.2
20260901034603 72 0 0.0 0.0 0.00 0.00 0.00 94 1017.2
20260901034503 72 0 0.0 0.0 0.00 0.00 0.00 94 1017.3
20260901034403 72 0 0.0 0.0 0.00 0.00 0.00 94 1017.1
20260901034302 72 0 0.0 0.0 0.00 0.00 0.00 94 1017.1
20260901034203 72 0 0.0 0.0 0.00 0.00 0.00 94 1017.3
20260901034102 72 0 0.0 0.0 0.00 0.00 0.00 94 1017.1
20260901034024 72 0 0.0 0.0 0.00 0.00 0.00 93 1017.2
20260901033902 72 0 0.0 0.0 0.00 0.00 0.00 94 1017.2
20260901033804 72 0 0.0 0.0 0.00 0.00 0.00 94 1017.3
20260901033703 72 0 0.0 0.0 0.00 0.00 0.00 93 1017.2
20260901033602 72 107 0.0 1.0 0.00 0.00 0.00 93 1017.2
20260901033503 72 96 0.0 2.0 0.00 0.00 0.00 93 1017.1
20260901033402 72 103 0.0 2.0 0.00 0.00 0.00 93 1017.1
20260901033302 72 103 0.0 2.0 0.00 0.00 0.00 93 1017.1
20260901033225 72 103 0.0 2.0 0.00 0.00 0.00 93 1017.2
20260901033124 72 103 0.0 2.0 0.00 0.00 0.00 93 1017.1
20260901033003 72 103 0.0 2.0 0.00 0.00 0.00 93 1017.0
20260901032903 72 103 0.0 2.0 0.00 0.00 0.00 93 1016.9
20260901032804 72 103 0.0 2.0 0.00 0.00 0.00 93 1017.1
20260901032702 72 103 0.0 2.0 0.00 0.00 0.00 93 1017.1
20260901032624 72 102 0.0 2.0 0.00 0.00 0.00 93 1017.1
20260901032504 72 117 0.0 2.0 0.00 0.00 0.00 94 1017.1
20260901032403 72 0 0.0 0.0 0.00 0.00 0.00 94 1017.2
20260901032306 72 0 0.0 0.0 0.00 0.00 0.00 94 1017.4
20260901032204 72 0 0.0 0.0 0.00 0.00 0.00 93 1017.5
20260901032102 72 0 0.0 0.0 0.00 0.00 0.00 93 1017.5
20260901032024 72 0 0.0 0.0 0.00 0.00 0.00 93 1017.5
20260901031904 72 0 0.0 0.0 0.00 0.00 0.00 94 1017.4
20260901031803 72 0 0.0 0.0 0.00 0.00 0.00 94 1017.4
20260901031703 72 0 0.0 0.0 0.00 0.00 0.00 94 1017.4
20260901031625 72 0 0.0 0.0 0.00 0.00 0.00 94 1017.4
20260901031502 72 0 0.0 0.0 0.00 0.00 0.00 94 1017.3
20260901031403 72 0 0.0 0.0 0.00 0.00 0.00 94 1017.3
20260901031302 72 0 0.0 0.0 0.00 0.00 0.00 94 1017.2
20260901031203 72 0 0.0 0.0 0.00 0.00 0.00 94 1017.3
20260901031104 72 0 0.0 0.0 0.00 0.00 0.00 94 1017.1
20260901031004 72 0 0.0 0.0 0.00 0.00 0.00 94 1017.1
20260901030903 72 0 0.0 0.0 0.00 0.00 0.00 94 1017.2
20260901030803 72 0 0.0 0.0 0.00 0.00 0.00 94 1017.1
20260901030703 72 0 0.0 0.0 0.00 0.00 0.00 94 1017.3
20260901030603 72 0 0.0 0.0 0.00 0.00 0.00 94 1017.2
20260901030524 72 0 0.0 0.0 0.00 0.00 0.00 94 1017.3
20260901030404 72 0 0.0 0.0 0.00 0.00 0.00 94 1017.3
20260901030303 72 0 0.0 0.0 0.00 0.00 0.00 94 1017.2
20260901030202 72 0 0.0 0.0 0.00 0.00 0.00 94 1017.2
20260901030004 72 0 0.0 0.0 0.00 0.00 0.00 94 1017.3
20260901025925 72 0 0.0 0.0 0.00 0.00 0.00 94 1017.3
20260901025803 72 0 0.0 0.0 0.00 0.00 0.00 94 1017.2
20260901025703 72 0 0.0 0.0 0.00 0.00 0.00 94 1017.3
20260901025602 72 0 0.0 0.0 0.00 0.00 0.00 94 1017.3
20260901025504 72 0 0.0 0.0 0.00 0.00 0.00 94 1017.2
20260901025425 72 0 0.0 0.0 0.00 0.00 0.00 93 1017.2
20260901025324 72 0 0.0 0.0 0.00 0.00 0.00 93 1017.3
20260901025203 72 0 0.0 0.0 0.00 0.00 0.00 93 1017.2
20260901025104 72 0 0.0 0.0 0.00 0.00 0.00 93 1017.1
20260901025002 72 0 0.0 0.0 0.00 0.00 0.00 93 1017.2
20260901024904 72 0 0.0 0.0 0.00 0.00 0.00 93 1017.3
20260901024802 72 0 0.0 0.0 0.00 0.00 0.00 93 1017.1
20260901024704 72 0 0.0 0.0 0.00 0.00 0.00 93 1017.1
20260901024603 72 0 0.0 0.0 0.00 0.00 0.00 93 1017.1
20260901024504 72 0 0.0 0.0 0.00 0.00 0.00 93 1017.2
20260901024403 72 0 0.0 0.0 0.00 0.00 0.00 93 1016.9
20260901024302 72 0 0.0 0.0 0.00 0.00 0.00 93 1017.1
20260901024225 72 0 0.0 0.0 0.00 0.00 0.00 93 1017.3
20260901024103 72 0 0.0 0.0 0.00 0.00 0.00 93 1016.9
20260901024024 72 0 0.0 0.0 0.00 0.00 0.00 93 1017.0
20260901023904 72 0 0.0 0.0 0.00 0.00 0.00 93 1016.9
20260901023824 72 0 0.0 0.0 0.00 0.00 0.00 93 1016.7
20260901023703 72 0 0.0 0.0 0.00 0.00 0.00 92 1016.9
20260901023603 72 0 0.0 0.0 0.00 0.00 0.00 93 1016.9
20260901023504 72 0 0.0 0.0 0.00 0.00 0.00 92 1016.8
20260901023403 72 0 0.0 0.0 0.00 0.00 0.00 92 1016.7
20260901023324 72 0 0.0 0.0 0.00 0.00 0.00 92 1016.9
20260901023204 72 0 0.0 0.0 0.00 0.00 0.00 92 1016.7
20260901023103 72 0 0.0 0.0 0.00 0.00 0.00 93 1017.0
20260901023004 72 0 0.0 0.0 0.00 0.00 0.00 92 1017.2
20260901022903 72 0 0.0 0.0 0.00 0.00 0.00 92 1017.2
20260901022803 73 0 0.0 0.0 0.00 0.00 0.00 92 1017.0
20260901022702 73 0 0.0 0.0 0.00 0.00 0.00 92 1017.1
20260901022624 73 0 0.0 0.0 0.00 0.00 0.00 92 1016.9
20260901022504 73 0 0.0 0.0 0.00 0.00 0.00 92 1017.0
20260901022402 73 0 0.0 0.0 0.00 0.00 0.00 92 1016.9
20260901022305 73 0 0.0 0.0 0.00 0.00 0.00 92 1017.0
20260901022225 73 0 0.0 0.0 0.00 0.00 0.00 92 1017.0
20260901022103 73 0 0.0 0.0 0.00 0.00 0.00 92 1017.2
20260901022025 73 0 0.0 0.0 0.00 0.00 0.00 92 1017.2
20260901021904 73 0 0.0 0.0 0.00 0.00 0.00 92 1017.2
20260901021803 73 0 0.0 0.0 0.00 0.00 0.00 92 1017.2
20260901021704 73 0 0.0 0.0 0.00 0.00 0.00 92 1017.3
20260901021603 73 0 0.0 0.0 0.00 0.00 0.00 92 1017.4
20260901021524 73 0 0.0 0.0 0.00 0.00 0.00 92 1017.3
20260901021403 73 0 0.0 0.0 0.00 0.00 0.00 92 1017.3
20260901021303 73 0 0.0 0.0 0.00 0.00 0.00 92 1017.3
20260901021203 73 0 0.0 0.0 0.00 0.00 0.00 92 1017.3
20260901021103 73 0 0.0 0.0 0.00 0.00 0.00 92 1017.2
20260901021003 73 0 0.0 0.0 0.00 0.00 0.00 91 1017.4
20260901020904 73 0 0.0 0.0 0.00 0.00 0.00 91 1017.3
20260901020803 73 0 0.0 0.0 0.00 0.00 0.00 91 1017.3
20260901020703 74 0 0.0 0.0 0.00 0.00 0.00 91 1017.4
20260901020603 74 0 0.0 0.0 0.00 0.00 0.00 91 1017.5
20260901020503 74 0 0.0 0.0 0.00 0.00 0.00 91 1017.5
20260901020403 74 0 0.0 0.0 0.00 0.00 0.00 91 1017.3
20260901020303 74 0 0.0 0.0 0.00 0.00 0.00 91 1017.3
20260901020203 74 0 0.0 0.0 0.00 0.00 0.00 90 1017.4
20260901020003 74 0 0.0 0.0 0.00 0.00 0.00 90 1017.2
20260901015903 74 0 0.0 0.0 0.00 0.00 0.00 90 1017.1
20260901015802 74 0 0.0 0.0 0.00 0.00 0.00 90 1017.3
20260901015704 74 0 0.0 0.0 0.00 0.00 0.00 90 1017.2
20260901015603 74 0 0.0 0.0 0.00 0.00 0.00 90 1017.2
20260901015503 74 0 0.0 0.0 0.00 0.00 0.00 90 1017.2
20260901015403 74 0 0.0 0.0 0.00 0.00 0.00 90 1017.4
20260901015305 74 0 0.0 0.0 0.00 0.00 0.00 91 1017.2
20260901015224 74 0 0.0 0.0 0.00 0.00 0.00 91 1017.3
20260901015124 74 0 0.0 0.0 0.00 0.00 0.00 90 1017.3
20260901015025 74 0 0.0 0.0 0.00 0.00 0.00 90 1017.2
20260901014903 74 114 0.0 1.0 0.00 0.00 0.00 90 1017.3
20260901014803 75 116 0.0 2.0 0.00 0.00 0.00 90 1017.4
20260901014703 75 122 0.0 2.0 0.00 0.00 0.00 90 1017.3
20260901014603 75 126 0.0 2.0 0.00 0.00 0.00 90 1017.2
20260901014504 75 126 0.0 2.0 0.00 0.00 0.00 90 1017.3
20260901014403 75 126 0.0 2.0 0.00 0.00 0.00 90 1017.5
20260901014324 75 126 0.0 2.0 0.00 0.00 0.00 90 1017.4
20260901014203 75 126 0.0 2.0 0.00 0.00 0.00 89 1017.4
20260901014103 75 126 0.0 2.0 0.00 0.00 0.00 89 1017.3
20260901014024 75 126 0.0 2.0 0.00 0.00 0.00 89 1017.2
20260901013924 75 127 0.0 2.0 0.00 0.00 0.00 90 1017.3
20260901013803 75 132 0.0 2.0 0.00 0.00 0.00 90 1017.3
20260901013725 75 136 0.0 2.0 0.00 0.00 0.00 90 1017.3
20260901013603 75 0 0.0 0.0 0.00 0.00 0.00 90 1017.3
20260901013503 75 0 0.0 0.0 0.00 0.00 0.00 90 1017.4
20260901013423 75 0 0.0 0.0 0.00 0.00 0.00 90 1017.3
20260901013303 75 0 0.0 0.0 0.00 0.00 0.00 90 1017.3
20260901013203 75 0 0.0 0.0 0.00 0.00 0.00 90 1017.6
20260901013103 75 0 0.0 0.0 0.00 0.00 0.00 90 1017.5
20260901013003 75 0 0.0 0.0 0.00 0.00 0.00 89 1017.5
20260901012902 75 0 0.0 0.0 0.00 0.00 0.00 89 1017.4
20260901012803 75 0 0.0 0.0 0.00 0.00 0.00 89 1017.5
20260901012704 75 0 0.0 0.0 0.00 0.00 0.00 89 1017.5
20260901012603 76 0 0.0 0.0 0.00 0.00 0.00 88 1017.6
20260901012523 76 0 0.0 0.0 0.00 0.00 0.00 88 1017.7
20260901012403 76 0 0.0 0.0 0.00 0.00 0.00 88 1017.6
20260901012306 76 0 0.0 0.0 0.00 0.00 0.00 88 1017.5
20260901012203 76 0 0.0 0.0 0.00 0.00 0.00 87 1017.5
20260901012124 76 0 0.0 0.0 0.00 0.00 0.00 87 1017.6
20260901012004 76 0 0.0 0.0 0.00 0.00 0.00 87 1017.4
20260901011924 76 0 0.0 0.0 0.00 0.00 0.00 87 1017.3
20260901011802 76 0 0.0 0.0 0.00 0.00 0.00 86 1017.5
20260901011725 76 0 0.0 0.0 0.00 0.00 0.00 86 1017.2
20260901011602 76 0 0.0 0.0 0.00 0.00 0.00 86 1017.4
20260901011504 76 0 0.0 0.0 0.00 0.00 0.00 86 1017.4
20260901011404 76 0 0.0 0.0 0.00 0.00 0.00 85 1017.2
20260901011303 77 0 0.0 0.0 0.00 0.00 0.00 85 1017.2
20260901011203 77 0 0.0 0.0 0.00 0.00 0.00 85 1017.3
20260901011102 77 0 0.0 0.0 0.00 0.00 0.00 85 1017.2
20260901011003 77 0 0.0 0.0 0.00 0.00 0.00 84 1017.3
20260901010903 77 0 0.0 0.0 0.00 0.00 0.00 84 1017.2
20260901010802 77 0 0.0 0.0 0.00 0.00 0.00 84 1017.1
20260901010724 77 0 0.0 0.0 0.00 0.00 0.00 84 1017.0
20260901010603 77 0 0.0 0.0 0.00 0.00 0.00 84 1016.9
20260901010503 77 0 0.0 0.0 0.00 0.00 0.00 84 1017.2
20260901010404 77 0 0.0 0.0 0.00 0.00 0.00 84 1017.1
20260901010303 77 0 0.0 0.0 0.00 0.00 0.00 84 1017.1
20260901010224 77 0 0.0 0.0 0.00 0.00 0.00 84 1017.1
20260901010003 78 0 0.0 0.0 0.00 0.00 0.00 83 1017.2
20260901005903 78 0 0.0 0.0 0.00 0.00 0.00 83 1017.2
20260901005803 78 0 0.0 0.0 0.00 0.00 0.00 83 1017.2
20260901005704 78 0 0.0 0.0 0.00 0.00 0.00 82 1017.2
20260901005624 78 0 0.0 0.0 0.00 0.00 0.00 81 1017.1
20260901005503 78 108 0.0 1.0 0.00 0.00 0.00 80 1017.1
20260901005404 78 113 0.0 2.0 0.00 0.00 0.00 79 1017.0
20260901005306 78 114 0.0 2.0 0.00 0.00 0.00 79 1016.9
20260901005225 78 114 0.0 2.0 0.00 0.00 0.00 79 1017.1
20260901005104 79 114 0.0 2.0 0.00 0.00 0.00 79 1016.8
20260901005024 79 114 0.0 2.0 0.00 0.00 0.00 79 1017.2
20260901004903 79 113 0.0 2.0 0.00 0.00 0.00 79 1017.1
20260901004802 79 114 0.0 2.0 0.00 0.00 0.00 79 1017.0
20260901004704 79 114 0.0 2.0 0.00 0.00 0.00 79 1017.1
20260901004603 79 115 0.0 2.0 0.00 0.00 0.00 77 1017.1
20260901004504 79 118 0.0 2.0 0.00 0.00 0.00 77 1017.3
20260901004402 79 120 1.0 2.0 0.00 0.00 0.00 78 1017.2
20260901004304 79 120 1.0 2.0 0.00 0.00 0.00 79 1017.3
20260901004202 79 120 1.0 2.0 0.00 0.00 0.00 78 1017.2
20260901004124 79 121 1.0 2.0 0.00 0.00 0.00 78 1017.1
20260901004002 79 122 1.0 2.0 0.00 0.00 0.00 77 1017.1
20260901003903 79 124 1.0 2.0 0.00 0.00 0.00 77 1017.2
20260901003804 79 125 1.0 2.0 0.00 0.00 0.00 77 1017.3
20260901003703 79 129 1.0 2.0 0.00 0.00 0.00 77 1017.2
20260901003604 79 129 1.0 2.0 0.00 0.00 0.00 77 1017.4
20260901003503 79 129 0.0 2.0 0.00 0.00 0.00 77 1017.2
20260901003403 79 130 0.0 2.0 0.00 0.00 0.00 77 1017.3
20260901003304 79 132 0.0 2.0 0.00 0.00 0.00 77 1017.4
20260901003203 79 138 0.0 2.0 0.00 0.00 0.00 77 1017.5
20260901003104 79 136 0.0 2.0 0.00 0.00 0.00 77 1017.5
20260901003003 79 138 0.0 2.0 0.00 0.00 0.00 77 1017.3
20260901002903 79 138 0.0 2.0 0.00 0.00 0.00 78 1017.4
20260901002804 79 138 0.0 2.0 0.00 0.00 0.00 77 1017.4
20260901002704 79 127 0.0 1.0 0.00 0.00 0.00 77 1017.4
20260901002603 79 127 0.0 1.0 0.00 0.00 0.00 78 1017.3
20260901002504 79 127 0.0 1.0 0.00 0.00 0.00 78 1017.5
20260901002404 79 127 0.0 1.0 0.00 0.00 0.00 77 1017.4
20260901002305 79 126 0.0 1.0 0.00 0.00 0.00 77 1017.5
20260901002203 79 123 0.0 1.0 0.00 0.00 0.00 78 1017.6
20260901002103 79 117 0.0 1.0 0.00 0.00 0.00 77 1017.4
20260901002003 79 117 0.0 1.0 0.00 0.00 0.00 78 1017.6
20260901001924 79 117 0.0 1.0 0.00 0.00 0.00 77 1017.3
20260901001804 79 118 0.0 2.0 0.00 0.00 0.00 77 1017.4
20260901001724 79 118 0.0 2.0 0.00 0.00 0.00 77 1017.4
20260901001603 79 118 0.0 2.0 0.00 0.00 0.00 78 1017.4
20260901001524 79 117 0.0 2.0 0.00 0.00 0.00 77 1017.5
20260901001403 79 118 0.0 2.0 0.00 0.00 0.00 77 1017.5
20260901001304 79 118 0.0 2.0 0.00 0.00 0.00 77 1017.5
20260901001203 79 118 0.0 2.0 0.00 0.00 0.00 77 1017.2
20260901001104 79 118 0.0 2.0 0.00 0.00 0.00 77 1017.3
20260901001003 80 118 0.0 2.0 0.00 0.00 0.00 77 1017.3
20260901000925 80 123 0.0 2.0 0.00 0.00 0.00 77 1017.3
20260901000803 80 129 0.0 2.0 0.00 0.00 0.00 77 1017.5
20260901000704 80 133 0.0 2.0 0.00 0.00 0.00 77 1017.3
20260901000602 80 135 0.0 2.0 0.00 0.00 0.00 77 1017.4
20260901000504 80 140 0.0 2.0 0.00 0.00 0.00 76 1017.5
20260901000405 80 141 0.0 2.0 0.00 0.00 0.00 77 1017.5
20260901000304 80 141 0.0 2.0 0.00 0.00 0.00 76 1017.4
20260901000204 80 141 0.0 2.0 0.00 0.00 0.00 76 1017.5
20260901000103 80 141 0.0 2.0 0.00 0.00 0.00 75 1017.4
20260901000004 80 143 0.0 2.0 0.00 0.00 0.00 76 1017.5
20260831235903 80 134 0.0 2.0 0.00 0.00 0.00 76 1017.4
20260831235803 80 127 0.0 2.0 0.00 0.00 0.00 76 1017.4
20260831235704 80 0 0.0 0.0 0.00 0.00 0.00 76 1017.5
20260831235602 80 0 0.0 0.0 0.00 0.00 0.00 78 1017.5
20260831235503 80 0 0.0 0.0 0.00 0.00 0.00 77 1017.4
20260831235403 80 0 0.0 0.0 0.00 0.00 0.00 77 1017.4
20260831235306 80 0 0.0 0.0 0.00 0.00 0.00 77 1017.5
20260831235203 80 0 0.0 0.0 0.00 0.00 0.00 77 1017.5
20260831235124 80 0 0.0 0.0 0.00 0.00 0.00 76 1017.6
20260831235024 80 0 0.0 0.0 0.00 0.00 0.00 77 1017.6
20260831234903 80 116 0.0 1.0 0.00 0.00 0.00 76 1017.6
20260831234804 80 130 0.0 1.0 0.00 0.00 0.00 77 1017.4
20260831234704 81 130 0.0 1.0 0.00 0.00 0.00 77 1017.6
20260831234604 81 130 0.0 1.0 0.00 0.00 0.00 76 1017.5
20260831234504 81 128 0.0 1.0 0.00 0.00 0.00 76 1017.5
20260831234404 81 142 0.0 2.0 0.00 0.00 0.00 75 1017.6
20260831234324 81 142 0.0 2.0 0.00 0.00 0.00 76 1017.6
20260831234203 81 142 0.0 2.0 0.00 0.00 0.00 76 1017.4
20260831234103 81 142 0.0 2.0 0.00 0.00 0.00 75 1017.4
20260831234003 81 142 0.0 2.0 0.00 0.00 0.00 76 1017.5
20260831233924 81 144 0.0 2.0 0.00 0.00 0.00 75 1017.4
20260831233803 81 151 0.0 2.0 0.00 0.00 0.00 75 1017.5
20260831233703 81 151 0.0 2.0 0.00 0.00 0.00 75 1017.6
20260831233624 81 151 0.0 2.0 0.00 0.00 0.00 75 1017.6
20260831233502 81 158 0.0 2.0 0.00 0.00 0.00 75 1017.6
20260831233404 81 0 0.0 0.0 0.00 0.00 0.00 75 1017.4
20260831233325 81 0 0.0 0.0 0.00 0.00 0.00 74 1017.3
20260831233204 81 130 0.0 1.0 0.00 0.00 0.00 75 1017.5
20260831233102 81 135 0.0 1.0 0.00 0.00 0.00 75 1017.4
20260831233003 81 135 0.0 1.0 0.00 0.00 0.00 75 1017.3
20260831232904 81 144 0.0 1.0 0.00 0.00 0.00 75 1017.5
20260831232804 81 144 0.0 2.0 0.00 0.00 0.00 74 1017.4
20260831232724 81 143 0.0 2.0 0.00 0.00 0.00 75 1017.3
20260831232625 82 142 0.0 2.0 0.00 0.00 0.00 74 1017.4
20260831232503 82 141 0.0 2.0 0.00 0.00 0.00 74 1017.5
20260831232402 82 141 0.0 2.0 0.00 0.00 0.00 74 1017.3
20260831232305 82 141 0.0 2.0 0.00 0.00 0.00 73 1017.4
20260831232204 82 142 0.0 2.0 0.00 0.00 0.00 73 1017.3
20260831232125 82 142 0.0 2.0 0.00 0.00 0.00 73 1017.4
20260831232003 82 142 0.0 2.0 0.00 0.00 0.00 72 1017.4
20260831231903 82 140 0.0 2.0 0.00 0.00 0.00 72 1017.3
20260831231802 82 139 0.0 2.0 0.00 0.00 0.00 72 1017.4
20260831231724 82 139 0.0 2.0 0.00 0.00 0.00 72 1017.4
20260831231603 82 142 0.0 2.0 0.00 0.00 0.00 72 1017.4
20260831231524 82 145 0.0 1.0 0.00 0.00 0.00 72 1017.5
20260831231403 82 142 0.0 1.0 0.00 0.00 0.00 72 1017.5
20260831231304 82 139 0.0 1.0 0.00 0.00 0.00 72 1017.4
20260831231224 82 138 0.0 1.0 0.00 0.00 0.00 72 1017.5
20260831231125 82 138 0.0 1.0 0.00 0.00 0.00 71 1017.6
20260831231003 82 149 0.0 2.0 0.00 0.00 0.00 71 1017.3
20260831230924 82 151 0.0 2.0 0.00 0.00 0.00 71 1017.4
20260831230802 82 151 0.0 2.0 0.00 0.00 0.00 71 1017.5
20260831230704 83 149 0.0 2.0 0.00 0.00 0.00 70 1017.5
20260831230603 83 148 0.0 2.0 0.00 0.00 0.00 70 1017.5
20260831230503 83 150 0.0 2.0 0.00 0.00 0.00 70 1017.5
20260831230404 83 150 0.0 2.0 0.00 0.00 0.00 70 1017.5
20260831230304 83 152 0.0 2.0 0.00 0.00 0.00 70 1017.6
20260831230204 83 154 0.0 2.0 0.00 0.00 0.00 70 1017.5
20260831230004 83 140 0.0 2.0 0.00 0.00 0.00 69 1017.6
20260831225903 83 140 0.0 2.0 0.00 0.00 0.00 69 1017.7
20260831225824 83 140 0.0 2.0 0.00 0.00 0.00 69 1017.5
20260831225703 83 143 0.0 2.0 0.00 0.00 0.00 68 1017.6
20260831225603 83 145 0.0 2.0 0.00 0.00 0.00 68 1017.8
20260831225504 83 136 0.0 2.0 0.00 0.00 0.00 69 1017.6
20260831225404 83 136 0.0 2.0 0.00 0.00 0.00 68 1017.5
20260831225306 83 136 0.0 2.0 0.00 0.00 0.00 68 1017.6
20260831225204 83 136 0.0 2.0 0.00 0.00 0.00 68 1017.7
20260831225103 84 136 0.0 2.0 0.00 0.00 0.00 68 1017.7
20260831225025 84 139 0.0 2.0 0.00 0.00 0.00 67 1017.6
20260831224903 84 127 0.0 1.0 0.00 0.00 0.00 71 1017.5
20260831224803 84 135 0.0 2.0 0.00 0.00 0.00 71 1017.6
20260831224703 84 141 0.0 2.0 0.00 0.00 0.00 71 1017.8
20260831224603 84 141 0.0 2.0 0.00 0.00 0.00 70 1017.5
20260831224504 84 141 0.0 2.0 0.00 0.00 0.00 69 1017.5
20260831224403 84 142 0.0 2.0 0.00 0.00 0.00 69 1017.8
20260831224304 84 143 0.0 2.0 0.00 0.00 0.00 69 1017.6
20260831224203 84 143 0.0 2.0 0.00 0.00 0.00 68 1017.8
20260831224125 84 143 0.0 2.0 0.00 0.00 0.00 69 1017.6
20260831224004 84 144 0.0 2.0 0.00 0.00 0.00 68 1017.7
20260831223903 84 146 0.0 2.0 0.00 0.00 0.00 68 1017.7
20260831223804 84 143 0.0 2.0 0.00 0.00 0.00 68 1017.7
20260831223703 84 143 0.0 1.0 0.00 0.00 0.00 67 1017.7
20260831223625 84 143 0.0 1.0 0.00 0.00 0.00 67 1017.7
20260831223503 84 143 0.0 1.0 0.00 0.00 0.00 68 1017.6
20260831223403 84 142 0.0 1.0 0.00 0.00 0.00 67 1017.8
20260831223323 84 136 0.0 1.0 0.00 0.00 0.00 69 1017.6
20260831223203 84 136 0.0 1.0 0.00 0.00 0.00 67 1017.6
20260831223103 85 136 0.0 1.0 0.00 0.00 0.00 69 1017.6
20260831223003 85 136 0.0 1.0 0.00 0.00 0.00 69 1017.7
20260831222902 85 149 0.0 1.0 0.00 0.00 0.00 67 1017.7
20260831222803 85 0 0.0 0.0 0.00 0.00 0.00 67 1017.8
20260831222704 85 0 0.0 0.0 0.00 0.00 0.00 65 1017.7
20260831222603 85 0 0.0 0.0 0.00 0.00 0.00 67 1017.9
20260831222504 85 0 0.0 0.0 0.00 0.00 0.00 66 1017.4
20260831222403 85 0 0.0 0.0 0.00 0.00 0.00 65 1017.7
20260831222306 86 0 0.0 0.0 0.00 0.00 0.00 64 1017.6
20260831222203 86 0 0.0 0.0 0.00 0.00 0.00 65 1017.6
20260831222103 86 0 0.0 0.0 0.00 0.00 0.00 68 1017.5
20260831222004 86 0 0.0 0.0 0.00 0.00 0.00 64 1017.5
20260831221924 85 162 0.0 2.0 0.00 0.00 0.00 62 1017.4
20260831221804 85 218 0.0 3.0 0.00 0.00 0.00 66 1017.8
20260831221703 85 218 0.0 3.0 0.00 0.00 0.00 65 1017.5
20260831221604 85 210 0.0 3.0 0.00 0.00 0.00 64 1017.6
20260831221503 85 188 0.0 3.0 0.00 0.00 0.00 64 1017.5
20260831221403 85 164 0.0 3.0 0.00 0.00 0.00 66 1017.7
20260831221304 85 156 0.0 3.0 0.00 0.00 0.00 66 1017.6
20260831221202 85 155 1.0 3.0 0.00 0.00 0.00 64 1017.7
20260831221104 85 150 1.0 3.0 0.00 0.00 0.00 63 1017.8
20260831221003 85 156 1.0 3.0 0.00 0.00 0.00 63 1017.8
20260831220903 85 150 1.0 3.0 0.00 0.00 0.00 62 1017.7
20260831220804 86 125 0.0 2.0 0.00 0.00 0.00 64 1017.8
20260831220725 86 128 0.0 2.0 0.00 0.00 0.00 64 1017.7
20260831220604 86 129 1.0 2.0 0.00 0.00 0.00 62 1017.8
20260831220503 86 132 0.0 2.0 0.00 0.00 0.00 61 1017.7
20260831220424 87 142 0.0 2.0 0.00 0.00 0.00 60 1017.7
20260831220324 87 146 0.0 2.0 0.00 0.00 0.00 61 1017.8
20260831220203 87 170 1.0 2.0 0.00 0.00 0.00 60 1017.7
20260831220003 86 171 1.0 2.0 0.00 0.00 0.00 61 1017.8
20260831215904 86 169 0.0 2.0 0.00 0.00 0.00 62 1018.0
20260831215824 86 171 1.0 2.0 0.00 0.00 0.00 62 1017.8
20260831215704 85 175 1.0 2.0 0.00 0.00 0.00 63 1017.8
20260831215604 85 180 1.0 2.0 0.00 0.00 0.00 66 1017.9
20260831215503 85 179 1.0 2.0 0.00 0.00 0.00 66 1017.9
20260831215402 85 180 1.0 2.0 0.00 0.00 0.00 64 1017.6
20260831215324 85 181 1.0 2.0 0.00 0.00 0.00 63 1017.8
20260831215224 85 172 1.0 2.0 0.00 0.00 0.00 63 1017.7
20260831215104 86 169 1.0 2.0 0.00 0.00 0.00 65 1017.5
20260831215002 86 166 1.0 2.0 0.00 0.00 0.00 63 1017.7
20260831214903 86 166 1.0 2.0 0.00 0.00 0.00 62 1017.6
20260831214825 86 163 1.0 2.0 0.00 0.00 0.00 61 1017.7
20260831214704 87 151 0.0 2.0 0.00 0.00 0.00 61 1017.8
20260831214603 87 138 0.0 2.0 0.00 0.00 0.00 60 1017.7
20260831214503 87 125 0.0 1.0 0.00 0.00 0.00 60 1017.9
20260831214403 86 118 0.0 1.0 0.00 0.00 0.00 64 1017.8
20260831214304 86 118 0.0 1.0 0.00 0.00 0.00 65 1017.7
20260831214203 86 118 0.0 1.0 0.00 0.00 0.00 63 1018.0
20260831214103 86 120 0.0 1.0 0.00 0.00 0.00 63 1017.9
20260831214025 86 125 0.0 2.0 0.00 0.00 0.00 63 1017.9
20260831213903 86 124 0.0 2.0 0.00 0.00 0.00 66 1017.9
20260831213803 86 135 0.0 2.0 0.00 0.00 0.00 64 1018.0
20260831213704 86 131 0.0 2.0 0.00 0.00 0.00 63 1017.8
20260831213604 86 135 0.0 2.0 0.00 0.00 0.00 66 1017.9
20260831213503 85 135 0.0 2.0 0.00 0.00 0.00 65 1017.8
20260831213403 85 135 0.0 2.0 0.00 0.00 0.00 64 1017.9
20260831213303 85 124 0.0 2.0 0.00 0.00 0.00 65 1017.9
20260831213203 85 111 0.0 2.0 0.00 0.00 0.00 65 1017.9
20260831213103 85 109 0.0 2.0 0.00 0.00 0.00 64 1017.8
20260831213003 85 100 0.0 2.0 0.00 0.00 0.00 66 1017.9
20260831212904 85 105 0.0 2.0 0.00 0.00 0.00 64 1018.0
20260831212803 85 122 1.0 3.0 0.00 0.00 0.00 66 1018.0
20260831212703 84 162 1.0 3.0 0.00 0.00 0.00 65 1018.0
20260831212625 84 165 1.0 3.0 0.00 0.00 0.00 65 1018.0
20260831212525 84 147 1.0 3.0 0.00 0.00 0.00 65 1018.0
20260831212425 84 161 1.0 3.0 0.00 0.00 0.00 65 1017.9
20260831212324 84 185 1.0 4.0 0.00 0.00 0.00 66 1018.1
20260831212204 84 182 2.0 4.0 0.00 0.00 0.00 65 1018.0
20260831212103 84 183 2.0 4.0 0.00 0.00 0.00 65 1018.0
20260831212003 84 177 2.0 4.0 0.00 0.00 0.00 65 1018.0
20260831211902 85 182 2.0 4.0 0.00 0.00 0.00 64 1018.2
20260831211803 85 169 1.0 4.0 0.00 0.00 0.00 64 1018.0
20260831211703 85 160 1.0 4.0 0.00 0.00 0.00 64 1018.2
20260831211603 85 166 1.0 4.0 0.00 0.00 0.00 64 1018.1
20260831211525 85 168 1.0 4.0 0.00 0.00 0.00 63 1018.2
20260831211403 85 138 1.0 4.0 0.00 0.00 0.00 63 1017.9
20260831211303 85 126 1.0 4.0 0.00 0.00 0.00 63 1018.2
20260831211204 85 124 1.0 4.0 0.00 0.00 0.00 63 1017.9
20260831211104 85 115 0.0 4.0 0.00 0.00 0.00 62 1018.1
20260831211004 85 118 1.0 3.0 0.00 0.00 0.00 63 1018.1
20260831210924 85 125 1.0 3.0 0.00 0.00 0.00 63 1018.0
20260831210803 85 129 1.0 3.0 0.00 0.00 0.00 63 1018.1
20260831210703 85 127 1.0 3.0 0.00 0.00 0.00 62 1018.0
20260831210624 85 122 1.0 3.0 0.00 0.00 0.00 63 1018.2
20260831210503 85 117 1.0 3.0 0.00 0.00 0.00 63 1018.2
20260831210424 85 120 1.0 3.0 0.00 0.00 0.00 63 1018.2
20260831210303 85 147 1.0 3.0 0.00 0.00 0.00 62 1018.1
20260831210203 85 147 1.0 3.0 0.00 0.00 0.00 61 1018.1
20260831210003 85 108 1.0 3.0 0.00 0.00 0.00 61 1018.3
20260831205903 85 104 1.0 3.0 0.00 0.00 0.00 63 1018.3
20260831205802 85 86 1.0 4.0 0.00 0.00 0.00 63 1018.1
20260831205704 85 89 2.0 4.0 0.00 0.00 0.00 63 1018.1
20260831205603 85 100 2.0 4.0 0.00 0.00 0.00 63 1018.1
20260831205503 85 358 2.0 4.0 0.00 0.00 0.00 61 1018.3
20260831205424 85 85 2.0 4.0 0.00 0.00 0.00 62 1018.3
20260831205324 86 47 2.0 4.0 0.00 0.00 0.00 61 1018.2
20260831205203 86 53 2.0 4.0 0.00 0.00 0.00 62 1018.2
20260831205103 86 49 2.0 4.0 0.00 0.00 0.00 62 1018.3
20260831205003 87 82 2.0 4.0 0.00 0.00 0.00 62 1018.2
20260831204903 87 94 2.0 4.0 0.00 0.00 0.00 60 1018.1
20260831204803 87 101 2.0 4.0 0.00 0.00 0.00 60 1018.0
20260831204724 87 104 1.0 4.0 0.00 0.00 0.00 60 1018.0
20260831204603 86 94 1.0 4.0 0.00 0.00 0.00 63 1018.0
20260831204504 86 82 2.0 6.0 0.00 0.00 0.00 62 1018.1
20260831204404 87 173 2.0 7.0 0.00 0.00 0.00 62 1018.0
20260831204303 87 177 2.0 7.0 0.00 0.00 0.00 61 1018.1
20260831204225 87 198 2.0 7.0 0.00 0.00 0.00 61 1017.9
20260831204104 87 221 2.0 7.0 0.00 0.00 0.00 61 1018.0
20260831204004 87 230 2.0 7.0 0.00 0.00 0.00 60 1017.9
20260831203925 87 240 2.0 7.0 0.00 0.00 0.00 59 1017.7
20260831203803 86 233 2.0 7.0 0.00 0.00 0.00 60 1017.9
20260831203724 86 231 3.0 7.0 0.00 0.00 0.00 60 1017.8
20260831203603 86 234 3.0 7.0 0.00 0.00 0.00 61 1017.8
20260831203504 86 225 2.0 7.0 0.00 0.00 0.00 59 1017.9
20260831203424 87 223 2.0 6.0 0.00 0.00 0.00 58 1017.9
20260831203303 86 222 2.0 6.0 0.00 0.00 0.00 61 1017.8
20260831203225 86 221 2.0 6.0 0.00 0.00 0.00 60 1017.9
20260831203103 87 213 2.0 6.0 0.00 0.00 0.00 60 1017.9
20260831203003 87 207 2.0 6.0 0.00 0.00 0.00 60 1017.8
20260831202903 87 199 2.0 4.0 0.00 0.00 0.00 61 1017.9
20260831202803 87 213 2.0 4.0 0.00 0.00 0.00 59 1017.8
20260831202724 87 212 2.0 4.0 0.00 0.00 0.00 59 1017.9
20260831202603 86 218 2.0 7.0 0.00 0.00 0.00 61 1017.7
20260831202503 86 216 2.0 7.0 0.00 0.00 0.00 61 1017.8
20260831202404 86 217 2.0 7.0 0.00 0.00 0.00 59 1017.8
20260831202306 86 214 2.0 7.0 0.00 0.00 0.00 59 1017.8
20260831202203 86 225 2.0 7.0 0.00 0.00 0.00 61 1017.9
20260831202104 86 229 2.0 7.0 0.00 0.00 0.00 62 1017.7
20260831202004 86 221 2.0 7.0 0.00 0.00 0.00 60 1017.8
20260831201903 86 218 2.0 7.0 0.00 0.00 0.00 62 1018.0
20260831201803 86 202 2.0 7.0 0.00 0.00 0.00 62 1017.9
20260831201703 86 182 2.0 7.0 0.00 0.00 0.00 62 1018.0
20260831201604 86 142 2.0 4.0 0.00 0.00 0.00 60 1017.9
20260831201503 86 124 2.0 4.0 0.00 0.00 0.00 61 1017.9
20260831201425 86 122 2.0 4.0 0.00 0.00 0.00 61 1018.0
20260831201304 87 104 2.0 4.0 0.00 0.00 0.00 60 1017.9
20260831201203 87 94 1.0 4.0 0.00 0.00 0.00 61 1017.7
20260831201125 87 97 2.0 4.0 0.00 0.00 0.00 62 1018.0
20260831201003 87 114 2.0 4.0 0.00 0.00 0.00 62 1018.0
20260831200903 87 144 2.0 4.0 0.00 0.00 0.00 62 1018.0
20260831200803 86 169 2.0 4.0 0.00 0.00 0.00 62 1018.0
20260831200704 86 197 2.0 4.0 0.00 0.00 0.00 61 1017.9
20260831200604 86 208 2.0 4.0 0.00 0.00 0.00 62 1018.0
20260831200503 86 204 2.0 4.0 0.00 0.00 0.00 65 1017.9
20260831200403 86 206 1.0 4.0 0.00 0.00 0.00 63 1017.9
20260831200303 86 186 1.0 4.0 0.00 0.00 0.00 63 1018.1
20260831200203 85 174 1.0 4.0 0.00 0.00 0.00 62 1018.0
20260831200024 85 146 1.0 4.0 0.00 0.00 0.00 66 1017.7
20260831195902 85 122 1.0 3.0 0.00 0.00 0.00 64 1017.9
20260831195803 85 108 1.0 3.0 0.00 0.00 0.00 64 1018.0
20260831195703 85 95 1.0 3.0 0.00 0.00 0.00 66 1017.8
20260831195624 84 98 1.0 3.0 0.00 0.00 0.00 66 1018.1
20260831195504 84 105 1.0 3.0 0.00 0.00 0.00 66 1017.8
20260831195403 84 112 1.0 3.0 0.00 0.00 0.00 67 1018.0
20260831195306 84 121 1.0 3.0 0.00 0.00 0.00 71 1017.9
20260831195204 84 122 1.0 3.0 0.00 0.00 0.00 66 1017.9
20260831195103 84 125 1.0 3.0 0.00 0.00 0.00 67 1018.1
20260831195025 84 120 1.0 3.0 0.00 0.00 0.00 67 1017.9
20260831194925 84 127 1.0 3.0 0.00 0.00 0.00 66 1017.9
20260831194804 84 137 0.0 3.0 0.00 0.00 0.00 66 1017.9
20260831194702 84 140 0.0 2.0 0.00 0.00 0.00 68 1017.7
20260831194603 84 138 0.0 2.0 0.00 0.00 0.00 66 1017.9
20260831194503 84 139 0.0 2.0 0.00 0.00 0.00 65 1017.8
20260831194403 84 140 0.0 2.0 0.00 0.00 0.00 65 1017.6
20260831194324 84 144 0.0 2.0 0.00 0.00 0.00 65 1017.6
20260831194204 84 144 0.0 2.0 0.00 0.00 0.00 65 1017.6
20260831194103 84 146 0.0 2.0 0.00 0.00 0.00 65 1017.4
20260831194003 84 142 1.0 2.0 0.00 0.00 0.00 65 1017.7
20260831193903 84 144 1.0 2.0 0.00 0.00 0.00 66 1017.6
20260831193803 84 141 1.0 2.0 0.00 0.00 0.00 64 1017.6
20260831193704 84 140 1.0 2.0 0.00 0.00 0.00 64 1017.8
20260831193625 84 144 1.0 2.0 0.00 0.00 0.00 65 1017.8
20260831193504 84 148 1.0 3.0 0.00 0.00 0.00 64 1017.9
20260831193403 84 147 1.0 3.0 0.00 0.00 0.00 63 1017.8
20260831193325 84 143 1.0 3.0 0.00 0.00 0.00 63 1017.9
20260831193225 84 143 1.0 3.0 0.00 0.00 0.00 63 1018.1
20260831193103 84 138 1.0 3.0 0.00 0.00 0.00 63 1018.0
20260831193025 84 138 1.0 3.0 0.00 0.00 0.00 63 1018.2
20260831192924 84 146 1.0 6.0 0.00 0.00 0.00 63 1018.1
20260831192803 84 139 1.0 6.0 0.00 0.00 0.00 63 1018.2
20260831192703 84 182 1.0 6.0 0.00 0.00 0.00 62 1018.2
20260831192603 84 193 2.0 6.0 0.00 0.00 0.00 63 1018.2
20260831192503 84 227 2.0 6.0 0.00 0.00 0.00 63 1018.1
20260831192403 84 222 2.0 6.0 0.00 0.00 0.00 62 1018.2
20260831192325 84 225 2.0 6.0 0.00 0.00 0.00 62 1018.3
20260831192225 84 262 2.0 6.0 0.00 0.00 0.00 61 1018.1
20260831192103 84 265 2.0 6.0 0.00 0.00 0.00 62 1018.3
20260831192025 84 259 3.0 6.0 0.00 0.00 0.00 62 1018.2
20260831191903 84 268 3.0 7.0 0.00 0.00 0.00 61 1018.5
20260831191803 85 263 3.0 7.0 0.00 0.00 0.00 62 1018.2
20260831191704 85 275 3.0 9.0 0.00 0.00 0.00 61 1018.5
20260831191604 85 275 3.0 9.0 0.00 0.00 0.00 60 1018.4
20260831191524 85 268 3.0 9.0 0.00 0.00 0.00 61 1018.4
20260831191402 85 271 3.0 9.0 0.00 0.00 0.00 61 1018.3
20260831191303 85 277 4.0 9.0 0.00 0.00 0.00 61 1018.4
20260831191224 85 267 4.0 9.0 0.00 0.00 0.00 60 1018.6
20260831191103 85 271 3.0 9.0 0.00 0.00 0.00 61 1018.4
20260831191024 85 274 3.0 9.0 0.00 0.00 0.00 61 1018.4
20260831190903 85 259 3.0 9.0 0.00 0.00 0.00 61 1018.6
20260831190803 85 248 3.0 9.0 0.00 0.00 0.00 60 1018.5
20260831190703 85 232 3.0 8.0 0.00 0.00 0.00 61 1018.5
20260831190604 86 221 3.0 8.0 0.00 0.00 0.00 61 1018.4
20260831190504 86 206 2.0 8.0 0.00 0.00 0.00 60 1018.4
20260831190403 87 175 2.0 7.0 0.00 0.00 0.00 61 1018.5
20260831190324 87 162 2.0 7.0 0.00 0.00 0.00 60 1018.4
20260831190203 87 191 2.0 7.0 0.00 0.00 0.00 59 1018.3
20260831190104 87 173 2.0 7.0 0.00 0.00 0.00 58 1018.5
20260831190003 87 173 2.0 7.0 0.00 0.00 0.00 58 1018.2
20260831185903 87 175 2.0 7.0 0.00 0.00 0.00 58 1018.4
20260831185803 87 179 2.0 7.0 0.00 0.00 0.00 59 1018.4
20260831185704 87 180 2.0 7.0 0.00 0.00 0.00 60 1018.4
20260831185624 87 197 2.0 7.0 0.00 0.00 0.00 60 1018.6
20260831185503 87 239 2.0 8.0 0.00 0.00 0.00 62 1018.6
20260831185403 87 238 2.0 8.0 0.00 0.00 0.00 61 1018.4
20260831185306 87 277 2.0 8.0 0.00 0.00 0.00 60 1018.3
20260831185204 87 290 2.0 8.0 0.00 0.00 0.00 64 1018.5
20260831185104 86 296 2.0 8.0 0.00 0.00 0.00 62 1018.4
20260831185003 86 305 2.0 8.0 0.00 0.00 0.00 64 1018.6
20260831184903 86 298 2.0 8.0 0.00 0.00 0.00 64 1018.5
20260831184804 86 314 3.0 8.0 0.00 0.00 0.00 62 1018.4
20260831184703 86 320 3.0 8.0 0.00 0.00 0.00 63 1018.5
20260831184603 86 337 2.0 8.0 0.00 0.00 0.00 62 1018.7
20260831184503 86 352 2.0 8.0 0.00 0.00 0.00 63 1018.5
20260831184404 86 5 2.0 8.0 0.00 0.00 0.00 63 1018.6
20260831184303 86 27 2.0 6.0 0.00 0.00 0.00 62 1018.7
20260831184204 86 34 2.0 6.0 0.00 0.00 0.00 64 1018.4
20260831184104 86 51 2.0 6.0 0.00 0.00 0.00 63 1018.7
20260831184003 86 72 2.0 6.0 0.00 0.00 0.00 63 1018.7
20260831183924 86 56 2.0 6.0 0.00 0.00 0.00 62 1018.7
20260831183804 86 89 2.0 4.0 0.00 0.00 0.00 63 1018.7
20260831183724 86 84 2.0 4.0 0.00 0.00 0.00 62 1018.7
20260831183603 87 92 2.0 4.0 0.00 0.00 0.00 61 1018.6
20260831183524 87 99 2.0 4.0 0.00 0.00 0.00 62 1018.8
20260831183403 87 115 2.0 6.0 0.00 0.00 0.00 63 1018.7
20260831183324 87 125 2.0 6.0 0.00 0.00 0.00 64 1018.7
20260831183204 86 156 2.0 7.0 0.00 0.00 0.00 62 1018.8
20260831183103 86 233 3.0 7.0 0.00 0.00 0.00 62 1018.8
20260831183004 86 261 3.0 8.0 0.00 0.00 0.00 62 1018.6
20260831182903 86 260 3.0 10.0 0.00 0.00 0.00 64 1018.7
20260831182803 86 262 3.0 10.0 0.00 0.00 0.00 64 1018.7
20260831182704 86 255 3.0 10.0 0.00 0.00 0.00 64 1018.7
20260831182604 86 259 4.0 10.0 0.00 0.00 0.00 63 1018.7
20260831182524 85 264 4.0 10.0 0.00 0.00 0.00 63 1018.8
20260831182404 85 264 4.0 10.0 0.00 0.00 0.00 63 1018.8
20260831182305 85 263 3.0 10.0 0.00 0.00 0.00 64 1018.8
20260831182204 85 259 3.0 10.0 0.00 0.00 0.00 63 1018.8
20260831182103 85 260 3.0 10.0 0.00 0.00 0.00 63 1018.7
20260831182003 85 266 3.0 10.0 0.00 0.00 0.00 63 1018.6
20260831181904 85 252 3.0 9.0 0.00 0.00 0.00 61 1018.6
20260831181802 85 255 3.0 9.0 0.00 0.00 0.00 63 1018.8
20260831181704 86 258 3.0 9.0 0.00 0.00 0.00 64 1018.8
20260831181624 86 247 3.0 9.0 0.00 0.00 0.00 62 1018.8
20260831181504 85 238 2.0 6.0 0.00 0.00 0.00 64 1018.9
20260831181404 85 244 2.0 6.0 0.00 0.00 0.00 63 1018.8
20260831181324 85 234 3.0 7.0 0.00 0.00 0.00 65 1018.7
20260831181203 85 239 3.0 7.0 0.00 0.00 0.00 65 1018.8
20260831181104 85 237 3.0 7.0 0.00 0.00 0.00 65 1019.0
20260831181004 85 222 3.0 7.0 0.00 0.00 0.00 64 1018.9
20260831180925 85 228 3.0 7.0 0.00 0.00 0.00 64 1018.8
20260831180803 85 222 2.0 7.0 0.00 0.00 0.00 64 1018.7
20260831180704 85 238 3.0 7.0 0.00 0.00 0.00 63 1018.8
20260831180603 85 231 3.0 7.0 0.00 0.00 0.00 64 1018.9
20260831180504 85 232 3.0 7.0 0.00 0.00 0.00 63 1018.9
20260831180403 85 199 3.0 7.0 0.00 0.00 0.00 63 1018.9
20260831180303 85 218 3.0 6.0 0.00 0.00 0.00 63 1019.0
20260831180224 85 220 3.0 6.0 0.00 0.00 0.00 63 1018.9
20260831180004 85 235 3.0 6.0 0.00 0.00 0.00 62 1018.8
20260831175904 85 247 3.0 6.0 0.00 0.00 0.00 62 1018.8
20260831175804 85 257 3.0 6.0 0.00 0.00 0.00 63 1018.8
20260831175704 85 233 3.0 6.0 0.00 0.00 0.00 63 1018.9
20260831175624 85 234 3.0 6.0 0.00 0.00 0.00 63 1018.8
20260831175503 85 246 3.0 8.0 0.00 0.00 0.00 62 1019.0
20260831175404 85 259 3.0 8.0 0.00 0.00 0.00 63 1019.0
20260831175306 86 261 3.0 8.0 0.00 0.00 0.00 63 1019.0
20260831175203 86 258 3.0 8.0 0.00 0.00 0.00 62 1019.0
20260831175103 86 267 3.0 8.0 0.00 0.00 0.00 62 1018.9
20260831175002 86 259 3.0 8.0 0.00 0.00 0.00 62 1018.8
20260831174903 86 245 3.0 8.0 0.00 0.00 0.00 62 1019.0
20260831174824 86 238 3.0 8.0 0.00 0.00 0.00 62 1018.9
20260831174703 86 228 3.0 8.0 0.00 0.00 0.00 62 1019.0
20260831174602 86 228 4.0 9.0 0.00 0.00 0.00 63 1018.9
20260831174504 86 229 4.0 11.0 0.00 0.00 0.00 63 1019.0
20260831174404 86 230 4.0 11.0 0.00 0.00 0.00 62 1018.9
20260831174304 86 229 4.0 11.0 0.00 0.00 0.00 61 1019.0
20260831174203 86 230 4.0 11.0 0.00 0.00 0.00 61 1018.7
20260831174103 86 229 4.0 11.0 0.00 0.00 0.00 61 1019.0
20260831174004 86 225 4.0 11.0 0.00 0.00 0.00 60 1019.1
20260831173903 86 224 4.0 11.0 0.00 0.00 0.00 61 1018.8
20260831173803 86 228 4.0 11.0 0.00 0.00 0.00 60 1019.0
20260831173703 86 236 4.0 11.0 0.00 0.00 0.00 62 1019.0
20260831173604 86 249 4.0 11.0 0.00 0.00 0.00 61 1018.8
20260831173503 86 248 4.0 11.0 0.00 0.00 0.00 61 1019.0
20260831173424 86 243 4.0 11.0 0.00 0.00 0.00 61 1018.9
20260831173302 86 238 3.0 11.0 0.00 0.00 0.00 61 1018.9
20260831173204 86 239 3.0 11.0 0.00 0.00 0.00 61 1018.9
20260831173103 86 243 3.0 11.0 0.00 0.00 0.00 61 1018.9
20260831173003 86 244 3.0 11.0 0.00 0.00 0.00 60 1018.9
20260831172903 86 248 3.0 10.0 0.00 0.00 0.00 60 1019.0
20260831172824 86 238 3.0 10.0 0.00 0.00 0.00 61 1019.1
20260831172703 87 228 3.0 9.0 0.00 0.00 0.00 61 1019.0
20260831172604 87 209 3.0 9.0 0.00 0.00 0.00 60 1018.8
20260831172503 87 198 3.0 9.0 0.00 0.00 0.00 62 1019.0
20260831172403 87 202 3.0 9.0 0.00 0.00 0.00 62 1018.9
20260831172306 87 203 3.0 9.0 0.00 0.00 0.00 62 1019.1
20260831172203 87 201 3.0 9.0 0.00 0.00 0.00 61 1019.0
20260831172103 87 193 3.0 9.0 0.00 0.00 0.00 62 1018.9
20260831172004 87 190 3.0 8.0 0.00 0.00 0.00 62 1019.0
20260831171904 87 188 2.0 8.0 0.00 0.00 0.00 62 1018.9
20260831171803 87 184 2.0 6.0 0.00 0.00 0.00 62 1018.9
20260831171703 86 183 2.0 6.0 0.00 0.00 0.00 63 1019.0
20260831171604 86 182 2.0 6.0 0.00 0.00 0.00 63 1019.0
20260831171524 85 189 2.0 6.0 0.00 0.00 0.00 64 1019.1
20260831171424 85 181 2.0 6.0 0.00 0.00 0.00 64 1018.7
20260831171303 86 180 2.0 6.0 0.00 0.00 0.00 63 1018.9
20260831171203 86 179 2.0 6.0 0.00 0.00 0.00 63 1018.9
20260831171124 86 176 2.0 6.0 0.00 0.00 0.00 63 1018.8
20260831171003 86 173 2.0 6.0 0.00 0.00 0.00 63 1019.1
20260831170904 86 171 2.0 4.0 0.00 0.00 0.00 62 1018.9
20260831170825 86 168 2.0 4.0 0.00 0.00 0.00 65 1019.0
20260831170703 86 170 2.0 4.0 0.00 0.00 0.00 63 1018.9
20260831170604 86 176 2.0 7.0 0.00 0.00 0.00 63 1018.8
20260831170503 86 183 2.0 7.0 0.00 0.00 0.00 62 1018.8
20260831170404 86 188 2.0 7.0 0.00 0.00 0.00 62 1019.0
20260831170304 86 194 2.0 7.0 0.00 0.00 0.00 62 1018.9
20260831170203 86 189 2.0 7.0 0.00 0.00 0.00 61 1018.9
20260831170025 86 190 2.0 8.0 0.00 0.00 0.00 62 1019.0
20260831165903 85 196 2.0 8.0 0.00 0.00 0.00 62 1019.0
20260831165804 85 196 2.0 8.0 0.00 0.00 0.00 63 1018.7
20260831165703 85 193 2.0 8.0 0.00 0.00 0.00 63 1018.8
20260831165603 85 187 2.0 8.0 0.00 0.00 0.00 62 1018.9
20260831165503 85 177 2.0 8.0 0.00 0.00 0.00 62 1018.9
20260831165425 85 172 2.0 8.0 0.00 0.00 0.00 63 1019.2
20260831165305 85 166 2.0 8.0 0.00 0.00 0.00 63 1019.1
20260831165204 85 174 2.0 8.0 0.00 0.00 0.00 62 1018.9
20260831165103 85 182 2.0 8.0 0.00 0.00 0.00 61 1019.1
20260831165004 85 174 2.0 7.0 0.00 0.00 0.00 65 1019.1
20260831164903 85 182 2.0 8.0 0.00 0.00 0.00 63 1019.1
20260831164804 85 201 2.0 8.0 0.00 0.00 0.00 64 1019.2
20260831164703 85 200 2.0 8.0 0.00 0.00 0.00 63 1019.0
20260831164625 85 193 2.0 8.0 0.00 0.00 0.00 63 1018.9
20260831164524 84 198 2.0 8.0 0.00 0.00 0.00 64 1019.2
20260831164403 85 209 3.0 8.0 0.00 0.00 0.00 63 1019.1
20260831164303 85 216 3.0 11.0 0.00 0.00 0.00 62 1019.2
20260831164203 85 239 3.0 11.0 0.00 0.00 0.00 63 1019.2
20260831164103 84 224 3.0 11.0 0.00 0.00 0.00 63 1019.1
20260831164004 84 236 3.0 11.0 0.00 0.00 0.00 63 1019.1
20260831163903 85 234 3.0 11.0 0.00 0.00 0.00 63 1018.9
20260831163824 85 225 3.0 11.0 0.00 0.00 0.00 63 1019.2
20260831163704 84 220 3.0 11.0 0.00 0.00 0.00 63 1019.0
20260831163604 84 220 3.0 11.0 0.00 0.00 0.00 62 1019.2
20260831163504 84 220 3.0 11.0 0.00 0.00 0.00 62 1019.1
20260831163424 85 227 3.0 11.0 0.00 0.00 0.00 62 1019.1
20260831163323 85 241 3.0 11.0 0.00 0.00 0.00 61 1018.9
20260831163204 85 202 3.0 7.0 0.00 0.00 0.00 60 1019.2
20260831163124 86 203 2.0 7.0 0.00 0.00 0.00 61 1019.1
20260831163003 86 193 2.0 7.0 0.00 0.00 0.00 60 1019.1
20260831162904 86 182 2.0 7.0 0.00 0.00 0.00 59 1019.0
20260831162803 86 177 2.0 7.0 0.00 0.00 0.00 61 1019.0
20260831162703 86 186 3.0 7.0 0.00 0.00 0.00 61 1019.1
20260831162604 86 198 3.0 7.0 0.00 0.00 0.00 60 1019.0
20260831162504 86 206 3.0 7.0 0.00 0.00 0.00 60 1019.0
20260831162403 87 201 3.0 7.0 0.00 0.00 0.00 58 1019.1
20260831162305 87 198 3.0 7.0 0.00 0.00 0.00 58 1019.1
20260831162204 87 199 2.0 7.0 0.00 0.00 0.00 60 1019.1
20260831162103 87 198 2.0 7.0 0.00 0.00 0.00 59 1019.1
20260831162003 86 206 2.0 7.0 0.00 0.00 0.00 59 1018.9
20260831161903 86 225 2.0 7.0 0.00 0.00 0.00 59 1018.8
20260831161804 86 226 2.0 7.0 0.00 0.00 0.00 60 1019.1
20260831161724 86 227 2.0 7.0 0.00 0.00 0.00 59 1019.0
20260831161624 86 222 2.0 6.0 0.00 0.00 0.00 59 1019.1
20260831161524 86 213 2.0 6.0 0.00 0.00 0.00 61 1019.1
20260831161402 85 215 2.0 6.0 0.00 0.00 0.00 62 1019.0
20260831161303 85 225 2.0 7.0 0.00 0.00 0.00 61 1019.2
20260831161225 84 217 2.0 7.0 0.00 0.00 0.00 62 1019.1
20260831161124 84 235 3.0 7.0 0.00 0.00 0.00 64 1019.2
20260831161003 84 230 2.0 7.0 0.00 0.00 0.00 63 1019.1
20260831160903 84 220 2.0 7.0 0.00 0.00 0.00 63 1019.0
20260831160804 84 221 2.0 7.0 0.00 0.00 0.00 65 1019.1
20260831160725 84 218 2.0 7.0 0.00 0.00 0.00 64 1019.2
20260831160603 84 185 2.0 7.0 0.00 0.00 0.00 66 1019.0
20260831160503 84 172 2.0 7.0 0.00 0.00 0.00 65 1019.2
20260831160403 84 170 2.0 7.0 0.00 0.00 0.00 64 1019.0
20260831160303 84 164 2.0 7.0 0.00 0.00 0.00 67 1019.2
20260831160204 84 169 2.0 7.0 0.00 0.00 0.00 67 1019.2
20260831160124 84 161 2.0 7.0 0.00 0.00 0.00 66 1019.2
20260831160004 84 154 2.0 7.0 0.00 0.00 0.00 66 1019.2
20260831155903 84 156 2.0 7.0 0.00 0.00 0.00 67 1019.2
20260831155804 84 156 2.0 7.0 0.00 0.00 0.00 67 1019.2
20260831155703 84 158 2.0 7.0 0.00 0.00 0.00 68 1019.3
20260831155604 84 157 2.0 7.0 0.00 0.00 0.00 67 1019.1
20260831155525 84 160 2.0 6.0 0.00 0.00 0.00 67 1019.1
20260831155403 84 166 2.0 6.0 0.00 0.00 0.00 65 1019.0
20260831155306 84 165 2.0 6.0 0.00 0.00 0.00 67 1019.0
20260831155203 84 161 2.0 6.0 0.00 0.00 0.00 66 1018.8
20260831155103 84 162 2.0 6.0 0.00 0.00 0.00 66 1019.0
20260831155004 84 165 2.0 6.0 0.00 0.00 0.00 66 1019.0
20260831154903 84 164 2.0 4.0 0.00 0.00 0.00 67 1019.3
20260831154803 84 160 2.0 4.0 0.00 0.00 0.00 66 1019.1
20260831154703 84 165 2.0 4.0 0.00 0.00 0.00 68 1018.9
20260831154624 84 168 2.0 4.0 0.00 0.00 0.00 68 1018.9
20260831154524 84 169 2.0 4.0 0.00 0.00 0.00 69 1019.2
20260831154425 84 159 2.0 7.0 0.00 0.00 0.00 68 1018.9
20260831154304 84 159 2.0 7.0 0.00 0.00 0.00 67 1019.1
20260831154204 84 158 2.0 7.0 0.00 0.00 0.00 68 1019.1
20260831154103 84 155 2.0 7.0 0.00 0.00 0.00 70 1018.9
20260831154003 83 162 2.0 7.0 0.00 0.00 0.00 70 1019.0
20260831153924 83 168 2.0 7.0 0.00 0.00 0.00 69 1019.0
20260831153803 83 174 2.0 7.0 0.00 0.00 0.00 70 1018.9
20260831153703 83 177 2.0 7.0 0.00 0.00 0.00 70 1019.0
20260831153603 83 177 2.0 7.0 0.00 0.00 0.00 70 1019.0
20260831153504 83 183 2.0 4.0 0.00 0.00 0.00 70 1019.0
20260831153403 83 184 2.0 4.0 0.00 0.00 0.00 71 1019.1
20260831153303 83 193 2.0 4.0 0.00 0.00 0.00 70 1019.1
20260831153203 83 191 2.0 4.0 0.00 0.00 0.00 71 1019.2
20260831153103 83 190 1.0 4.0 0.00 0.00 0.00 70 1019.1
20260831153003 84 184 1.0 4.0 0.00 0.00 0.00 69 1019.3
20260831152903 84 190 1.0 4.0 0.00 0.00 0.00 69 1019.1
20260831152824 84 193 2.0 4.0 0.00 0.00 0.00 69 1019.0
20260831152704 84 178 2.0 4.0 0.00 0.00 0.00 68 1019.0
20260831152603 84 179 1.0 4.0 0.00 0.00 0.00 71 1019.1
20260831152503 83 178 1.0 4.0 0.00 0.00 0.00 71 1019.1
20260831152403 83 181 2.0 4.0 0.00 0.00 0.00 71 1019.3
20260831152306 83 169 1.0 4.0 0.00 0.00 0.00 70 1019.3
20260831152203 83 167 2.0 4.0 0.00 0.00 0.00 70 1019.2
20260831152124 83 166 2.0 4.0 0.00 0.00 0.00 70 1019.2
20260831152024 83 169 2.0 4.0 0.00 0.00 0.00 70 1019.1
20260831151925 83 157 1.0 4.0 0.00 0.00 0.00 70 1019.2
20260831151803 83 146 1.0 4.0 0.00 0.00 0.00 70 1019.2
20260831151703 83 147 1.0 3.0 0.00 0.00 0.00 71 1019.2
20260831151603 83 146 1.0 3.0 0.00 0.00 0.00 71 1019.1
20260831151504 83 151 1.0 3.0 0.00 0.00 0.00 71 1019.3
20260831151425 83 150 1.0 3.0 0.00 0.00 0.00 71 1019.2
20260831151303 83 158 1.0 3.0 0.00 0.00 0.00 71 1019.0
20260831151203 82 158 1.0 3.0 0.00 0.00 0.00 72 1019.2
20260831151103 82 161 1.0 3.0 0.00 0.00 0.00 71 1019.2
20260831151003 82 164 1.0 4.0 0.00 0.00 0.00 72 1019.2
20260831150903 82 158 1.0 6.0 0.00 0.00 0.00 71 1019.1
20260831150803 82 158 1.0 6.0 0.00 0.00 0.00 73 1019.6
20260831150725 82 159 1.0 6.0 0.00 0.00 0.00 73 1019.3
20260831150625 82 159 1.0 6.0 0.00 0.00 0.00 73 1019.2
20260831150504 82 157 1.0 6.0 0.00 0.00 0.00 72 1019.3
20260831150404 82 154 1.0 6.0 0.00 0.00 0.00 71 1019.3
20260831150303 82 145 1.0 6.0 0.00 0.00 0.00 71 1019.3
20260831150204 82 152 1.0 6.0 0.00 0.00 0.00 72 1019.1
20260831150124 82 155 1.0 6.0 0.00 0.00 0.00 71 1019.4
20260831150025 82 149 1.0 6.0 0.00 0.00 0.00 71 1019.4
20260831145924 82 155 1.0 4.0 0.00 0.00 0.00 73 1019.4
20260831145803 82 156 1.0 4.0 0.00 0.00 0.00 75 1019.4
20260831145703 82 152 1.0 4.0 0.00 0.00 0.00 73 1019.3
20260831145603 82 153 1.0 6.0 0.00 0.00 0.00 75 1019.6
20260831145504 82 155 2.0 6.0 0.00 0.00 0.00 75 1019.4
20260831145403 81 153 2.0 6.0 0.00 0.00 0.00 75 1019.3
20260831145306 81 151 2.0 6.0 0.00 0.00 0.00 75 1019.2
20260831145224 81 150 2.0 6.0 0.00 0.00 0.00 75 1019.2
20260831145125 81 144 2.0 6.0 0.00 0.00 0.00 72 1019.3
20260831145004 81 140 1.0 6.0 0.00 0.00 0.00 75 1019.1
20260831144904 81 139 1.0 6.0 0.00 0.00 0.00 75 1019.4
20260831144803 80 139 1.0 6.0 0.00 0.00 0.00 75 1019.4
20260831144704 80 138 1.0 6.0 0.00 0.00 0.00 75 1019.1
20260831144624 80 135 1.0 6.0 0.00 0.00 0.00 76 1019.2
20260831144503 80 137 1.0 6.0 0.00 0.00 0.00 76 1019.3
20260831144404 81 140 1.0 6.0 0.00 0.00 0.00 76 1019.2
20260831144303 80 142 1.0 6.0 0.00 0.00 0.00 77 1019.3
20260831144203 80 143 1.0 4.0 0.00 0.00 0.00 76 1019.3
20260831144103 80 143 1.0 4.0 0.00 0.00 0.00 77 1019.4
20260831144003 80 141 1.0 4.0 0.00 0.00 0.00 77 1019.3
20260831143903 79 138 1.0 4.0 0.00 0.00 0.00 77 1019.3
20260831143803 79 138 2.0 7.0 0.00 0.00 0.00 78 1019.3
20260831143702 79 138 2.0 7.0 0.00 0.00 0.00 78 1019.2
20260831143603 79 138 1.0 7.0 0.00 0.00 0.00 78 1019.3
20260831143503 79 131 1.0 7.0 0.00 0.00 0.00 78 1019.3
20260831143404 78 130 1.0 7.0 0.00 0.00 0.00 81 1019.2
20260831143304 78 131 1.0 7.0 0.00 0.00 0.00 81 1019.2
20260831143204 77 130 1.0 7.0 0.00 0.00 0.00 80 1019.3
20260831143103 77 129 1.0 7.0 0.00 0.00 0.00 81 1019.2
20260831143004 77 129 1.0 7.0 0.00 0.00 0.00 81 1019.3
20260831142905 77 134 1.0 7.0 0.00 0.00 0.00 81 1019.2
20260831142825 77 133 1.0 3.0 0.00 0.00 0.00 82 1019.6
20260831142705 77 132 1.0 3.0 0.00 0.00 0.00 81 1019.2
20260831142604 76 132 1.0 3.0 0.00 0.00 0.00 82 1019.2
20260831142503 76 132 1.0 3.0 0.00 0.00 0.00 82 1019.1
20260831142425 76 131 1.0 3.0 0.00 0.00 0.00 82 1019.1
20260831142305 76 128 1.0 3.0 0.00 0.00 0.00 82 1019.0
20260831142203 77 128 1.0 3.0 0.00 0.00 0.00 82 1019.1
20260831142104 77 128 1.0 2.0 0.00 0.00 0.00 81 1019.1
20260831142005 77 127 0.0 2.0 0.00 0.00 0.00 82 1019.1
20260831141904 77 123 0.0 2.0 0.00 0.00 0.00 82 1019.1
20260831141804 77 124 0.0 2.0 0.00 0.00 0.00 81 1019.3
20260831141703 77 124 0.0 2.0 0.00 0.00 0.00 81 1019.1
20260831141604 77 124 0.0 2.0 0.00 0.00 0.00 81 1019.2
20260831141503 77 125 0.0 2.0 0.00 0.00 0.00 80 1019.2
20260831141424 77 126 0.0 2.0 0.00 0.00 0.00 81 1019.1
20260831141304 77 132 0.0 2.0 0.00 0.00 0.00 80 1019.1
20260831141203 77 145 0.0 3.0 0.00 0.00 0.00 80 1019.2
20260831141104 77 166 1.0 3.0 0.00 0.00 0.00 80 1019.3
20260831141004 77 166 1.0 3.0 0.00 0.00 0.00 79 1019.1
20260831140903 77 166 1.0 3.0 0.00 0.00 0.00 79 1019.2
20260831140803 77 166 1.0 3.0 0.00 0.00 0.00 80 1019.3
20260831140703 77 164 1.0 3.0 0.00 0.00 0.00 80 1019.2
20260831140603 77 166 1.0 3.0 0.00 0.00 0.00 79 1019.3
20260831140504 77 163 1.0 3.0 0.00 0.00 0.00 79 1019.4
20260831140403 77 166 1.0 3.0 0.00 0.00 0.00 79 1019.2
20260831140303 77 167 1.0 3.0 0.00 0.00 0.00 79 1019.2
20260831140224 77 164 1.0 3.0 0.00 0.00 0.00 79 1019.0
20260831140003 78 151 1.0 3.0 0.00 0.00 0.00 78 1019.1
20260831135904 78 151 1.0 3.0 0.00 0.00 0.00 79 1019.2
20260831135803 78 151 1.0 3.0 0.00 0.00 0.00 79 1019.2
20260831135724 78 151 1.0 3.0 0.00 0.00 0.00 79 1019.1
20260831135604 78 147 1.0 3.0 0.00 0.00 0.00 78 1019.0
20260831135503 78 147 1.0 3.0 0.00 0.00 0.00 79 1019.2
20260831135402 78 142 0.0 3.0 0.00 0.00 0.00 79 1019.0
20260831135324 78 139 1.0 3.0 0.00 0.00 0.00 79 1019.0
20260831135204 78 135 1.0 3.0 0.00 0.00 0.00 79 1019.1
20260831135103 78 133 1.0 3.0 0.00 0.00 0.00 78 1019.1
20260831135024 78 129 1.0 3.0 0.00 0.00 0.00 81 1019.3
20260831134903 77 128 1.0 3.0 0.00 0.00 0.00 81 1019.1
20260831134803 77 127 1.0 3.0 0.00 0.00 0.00 81 1019.1
20260831134703 76 129 1.0 3.0 0.00 0.00 0.00 83 1019.0
20260831134603 76 134 1.0 4.0 0.00 0.00 0.00 84 1019.1
20260831134504 76 134 2.0 4.0 0.00 0.00 0.00 84 1018.9
20260831134404 75 134 2.0 4.0 0.00 0.00 0.00 84 1019.2
20260831134303 75 134 2.0 4.0 0.00 0.00 0.00 84 1019.0
20260831134204 75 136 1.0 4.0 0.00 0.00 0.00 84 1019.1
20260831134103 75 142 1.0 4.0 0.00 0.00 0.00 84 1019.3
20260831134004 75 142 1.0 4.0 0.00 0.00 0.00 84 1019.2
20260831133903 75 145 1.0 4.0 0.00 0.00 0.00 84 1019.2
20260831133804 75 148 1.0 4.0 0.00 0.00 0.00 84 1019.2
20260831133724 75 148 1.0 4.0 0.00 0.00 0.00 84 1019.0
20260831133624 75 142 2.0 4.0 0.00 0.00 0.00 84 1019.1
20260831133504 75 140 1.0 3.0 0.00 0.00 0.00 84 1019.3
20260831133425 75 139 1.0 3.0 0.00 0.00 0.00 85 1019.1
20260831133304 75 140 1.0 3.0 0.00 0.00 0.00 85 1019.2
20260831133203 75 139 1.0 3.0 0.00 0.00 0.00 85 1019.3
20260831133103 74 131 1.0 3.0 0.00 0.00 0.00 86 1019.3
20260831133003 74 131 1.0 3.0 0.00 0.00 0.00 86 1019.3
20260831132903 74 130 1.0 3.0 0.00 0.00 0.00 86 1019.2
20260831132824 74 129 1.0 3.0 0.00 0.00 0.00 86 1019.2
20260831132703 74 127 1.0 3.0 0.00 0.00 0.00 86 1019.3
20260831132603 74 129 1.0 3.0 0.00 0.00 0.00 86 1019.2
20260831132525 74 129 1.0 3.0 0.00 0.00 0.00 86 1019.2
20260831132403 74 129 0.0 2.0 0.00 0.00 0.00 86 1019.2
20260831132306 74 125 0.0 2.0 0.00 0.00 0.00 87 1019.3
20260831132203 74 126 0.0 2.0 0.00 0.00 0.00 87 1019.3
20260831132103 74 125 0.0 2.0 0.00 0.00 0.00 87 1019.1
20260831132024 74 125 0.0 2.0 0.00 0.00 0.00 86 1019.3
20260831131903 74 120 0.0 2.0 0.00 0.00 0.00 87 1019.2
20260831131824 74 113 0.0 2.0 0.00 0.00 0.00 87 1019.3
20260831131703 74 101 0.0 1.0 0.00 0.00 0.00 88 1019.2
20260831131603 74 101 0.0 1.0 0.00 0.00 0.00 88 1019.3
20260831131525 74 101 0.0 1.0 0.00 0.00 0.00 88 1019.1
20260831131402 74 103 0.0 1.0 0.00 0.00 0.00 89 1019.3
20260831131303 73 104 0.0 1.0 0.00 0.00 0.00 89 1019.3
20260831131224 73 104 0.0 1.0 0.00 0.00 0.00 89 1019.4
20260831131103 73 105 0.0 1.0 0.00 0.00 0.00 89 1019.3
20260831131003 73 105 0.0 1.0 0.00 0.00 0.00 89 1019.2
20260831130925 73 108 0.0 1.0 0.00 0.00 0.00 89 1019.2
20260831130802 73 109 0.0 1.0 0.00 0.00 0.00 89 1019.1
20260831130703 73 114 0.0 1.0 0.00 0.00 0.00 89 1019.1
20260831130604 73 107 0.0 4.0 0.00 0.00 0.00 90 1019.3
20260831130503 72 110 0.0 4.0 0.00 0.00 0.00 90 1019.3
20260831130403 72 109 0.0 4.0 0.00 0.00 0.00 90 1019.2
20260831130324 72 109 0.0 4.0 0.00 0.00 0.00 90 1019.2
20260831130203 72 109 0.0 4.0 0.00 0.00 0.00 90 1019.2
20260831130003 72 113 0.0 4.0 0.00 0.00 0.00 90 1019.2
20260831125903 72 115 1.0 4.0 0.00 0.00 0.00 90 1019.4
20260831125804 72 114 1.0 4.0 0.00 0.00 0.00 91 1019.3
20260831125702 72 113 1.0 4.0 0.00 0.00 0.00 90 1019.3
20260831125625 72 115 1.0 3.0 0.00 0.00 0.00 91 1019.1
20260831125503 72 114 1.0 4.0 0.00 0.00 0.00 91 1019.2
20260831125403 72 116 1.0 4.0 0.00 0.00 0.00 91 1019.2
20260831125306 72 117 1.0 4.0 0.00 0.00 0.00 91 1019.1
20260831125203 72 117 1.0 4.0 0.00 0.00 0.00 91 1019.2
20260831125103 72 116 1.0 4.0 0.00 0.00 0.00 91 1019.4
20260831125003 72 117 1.0 4.0 0.00 0.00 0.00 91 1019.0
20260831124903 72 116 1.0 4.0 0.00 0.00 0.00 91 1019.1
20260831124804 72 119 1.0 4.0 0.00 0.00 0.00 91 1019.3
20260831124704 71 119 1.0 4.0 0.00 0.00 0.00 91 1019.4
20260831124604 71 119 1.0 4.0 0.00 0.00 0.00 91 1019.1
20260831124503 71 124 1.0 3.0 0.00 0.00 0.00 91 1019.1
20260831124403 71 124 1.0 3.0 0.00 0.00 0.00 91 1019.2
20260831124303 71 123 1.0 3.0 0.00 0.00 0.00 91 1019.3
20260831124203 71 125 1.0 2.0 0.00 0.00 0.00 91 1019.2
20260831124124 71 126 1.0 2.0 0.00 0.00 0.00 91 1019.1
20260831124003 71 127 1.0 2.0 0.00 0.00 0.00 91 1019.4
20260831123903 71 127 1.0 2.0 0.00 0.00 0.00 91 1019.2
20260831123803 71 128 1.0 3.0 0.00 0.00 0.00 91 1019.2
20260831123724 71 128 1.0 3.0 0.00 0.00 0.00 91 1019.3
20260831123602 71 136 1.0 3.0 0.00 0.00 0.00 91 1019.2
20260831123504 71 132 1.0 3.0 0.00 0.00 0.00 91 1019.2
20260831123425 71 131 1.0 3.0 0.00 0.00 0.00 91 1019.2
20260831123325 71 131 1.0 4.0 0.00 0.00 0.00 91 1019.2
20260831123204 71 130 1.0 4.0 0.00 0.00 0.00 91 1019.1
20260831123102 71 128 1.0 4.0 0.00 0.00 0.00 91 1019.1
20260831123003 71 128 1.0 4.0 0.00 0.00 0.00 91 1019.2
20260831122903 71 128 1.0 4.0 0.00 0.00 0.00 91 1019.0
20260831122804 71 127 1.0 4.0 0.00 0.00 0.00 91 1019.3
20260831122703 71 124 2.0 4.0 0.00 0.00 0.00 91 1019.0
20260831122603 71 122 1.0 4.0 0.00 0.00 0.00 91 1019.1
20260831122503 71 124 2.0 4.0 0.00 0.00 0.00 91 1019.1
20260831122404 71 125 1.0 4.0 0.00 0.00 0.00 91 1019.1
20260831122305 71 125 1.0 4.0 0.00 0.00 0.00 91 1019.2
20260831122204 71 125 1.0 4.0 0.00 0.00 0.00 91 1019.2
20260831122103 71 126 1.0 4.0 0.00 0.00 0.00 91 1019.1
20260831122003 71 126 1.0 4.0 0.00 0.00 0.00 91 1019.2
20260831121904 71 126 1.0 4.0 0.00 0.00 0.00 91 1019.2
20260831121803 71 128 1.0 4.0 0.00 0.00 0.00 91 1019.1
20260831121725 71 134 1.0 4.0 0.00 0.00 0.00 91 1019.3
20260831121603 71 139 1.0 3.0 0.00 0.00 0.00 91 1019.2
20260831121503 71 135 0.0 3.0 0.00 0.00 0.00 91 1019.3
20260831121404 71 132 0.0 3.0 0.00 0.00 0.00 91 1019.2
20260831121303 71 131 1.0 3.0 0.00 0.00 0.00 91 1019.3
20260831121203 71 130 1.0 3.0 0.00 0.00 0.00 91 1019.2
20260831121104 71 127 0.0 3.0 0.00 0.00 0.00 91 1019.3
20260831121002 71 128 1.0 4.0 0.00 0.00 0.00 92 1019.3
20260831120904 71 126 1.0 4.0 0.00 0.00 0.00 92 1019.1
20260831120824 71 125 1.0 4.0 0.00 0.00 0.00 92 1019.3
20260831120703 71 119 1.0 4.0 0.00 0.00 0.00 92 1019.1
20260831120604 71 119 1.0 4.0 0.00 0.00 0.00 92 1019.2
20260831120503 71 119 1.0 4.0 0.00 0.00 0.00 92 1019.4
20260831120403 71 120 1.0 4.0 0.00 0.00 0.00 92 1019.3
20260831120304 71 118 1.0 4.0 0.00 0.00 0.00 92 1019.4
20260831120203 71 122 1.0 4.0 0.00 0.00 0.00 92 1019.1
20260831120003 71 122 1.0 6.0 0.00 0.00 0.00 92 1019.3
20260831115903 71 126 1.0 6.0 0.00 0.00 0.00 92 1019.3
20260831115803 71 127 1.0 6.0 0.00 0.00 0.00 92 1019.3
20260831115703 71 129 1.0 6.0 0.00 0.00 0.00 92 1019.3
20260831115603 71 129 1.0 6.0 0.00 0.00 0.00 92 1019.1
20260831115504 71 134 2.0 6.0 0.00 0.00 0.00 92 1019.3
20260831115403 71 135 2.0 6.0 0.00 0.00 0.00 92 1019.2
20260831115306 71 135 2.0 6.0 0.00 0.00 0.00 92 1019.4
20260831115204 71 135 2.0 6.0 0.00 0.00 0.00 92 1019.3
20260831115104 71 135 2.0 4.0 0.00 0.00 0.00 92 1019.3
20260831115004 71 137 2.0 4.0 0.00 0.00 0.00 92 1019.3
20260831114903 71 135 2.0 4.0 0.00 0.00 0.00 92 1019.3
20260831114803 71 136 1.0 4.0 0.00 0.00 0.00 92 1019.2
20260831114704 71 135 1.0 4.0 0.00 0.00 0.00 92 1019.4
20260831114603 71 134 1.0 4.0 0.00 0.00 0.00 92 1019.2
20260831114524 71 129 1.0 4.0 0.00 0.00 0.00 92 1019.2
20260831114404 71 123 1.0 3.0 0.00 0.00 0.00 92 1019.3
20260831114303 71 122 1.0 3.0 0.00 0.00 0.00 92 1019.2
20260831114204 71 118 1.0 3.0 0.00 0.00 0.00 92 1019.2
20260831114103 71 119 1.0 6.0 0.00 0.00 0.00 92 1019.3
20260831114004 71 119 1.0 6.0 0.00 0.00 0.00 92 1019.0
20260831113925 71 119 1.0 6.0 0.00 0.00 0.00 92 1019.2
20260831113804 71 117 1.0 6.0 0.00 0.00 0.00 92 1019.1
20260831113724 71 119 1.0 6.0 0.00 0.00 0.00 92 1019.3
20260831113603 71 119 2.0 6.0 0.00 0.00 0.00 92 1019.0
20260831113503 71 122 2.0 6.0 0.00 0.00 0.00 92 1019.3
20260831113403 71 123 2.0 6.0 0.00 0.00 0.00 92 1019.2
20260831113303 71 127 2.0 6.0 0.00 0.00 0.00 92 1019.1
20260831113203 71 129 2.0 6.0 0.00 0.00 0.00 92 1019.1
20260831113103 71 130 2.0 6.0 0.00 0.00 0.00 92 1019.4
20260831113024 71 128 2.0 6.0 0.00 0.00 0.00 92 1019.2
20260831112903 71 130 2.0 6.0 0.00 0.00 0.00 92 1019.1
20260831112804 71 132 2.0 6.0 0.00 0.00 0.00 91 1019.2
20260831112724 71 133 2.0 6.0 0.00 0.00 0.00 91 1018.9
20260831112604 71 133 2.0 6.0 0.00 0.00 0.00 91 1019.0
20260831112504 71 133 1.0 6.0 0.00 0.00 0.00 91 1019.2
20260831112404 71 134 1.0 6.0 0.00 0.00 0.00 91 1019.0
20260831112307 71 131 1.0 6.0 0.00 0.00 0.00 91 1019.2
20260831112203 71 129 1.0 4.0 0.00 0.00 0.00 91 1019.2
20260831112124 71 130 1.0 4.0 0.00 0.00 0.00 91 1019.2
20260831112003 71 128 1.0 3.0 0.00 0.00 0.00 91 1019.1
20260831111924 71 127 1.0 2.0 0.00 0.00 0.00 91 1019.0
20260831111804 71 127 1.0 2.0 0.00 0.00 0.00 91 1019.0
20260831111724 71 127 1.0 2.0 0.00 0.00 0.00 91 1019.2
20260831111603 71 127 1.0 2.0 0.00 0.00 0.00 91 1019.1
20260831111503 71 126 1.0 4.0 0.00 0.00 0.00 91 1019.1
20260831111404 71 126 1.0 6.0 0.00 0.00 0.00 91 1019.1
20260831111303 71 127 2.0 6.0 0.00 0.00 0.00 91 1019.2
20260831111203 71 127 1.0 6.0 0.00 0.00 0.00 91 1019.0
20260831111125 71 128 1.0 6.0 0.00 0.00 0.00 91 1019.1
20260831111025 71 126 1.0 6.0 0.00 0.00 0.00 91 1019.1
20260831110903 71 128 2.0 6.0 0.00 0.00 0.00 91 1018.9
20260831110803 71 132 2.0 6.0 0.00 0.00 0.00 91 1019.1
20260831110725 71 132 2.0 6.0 0.00 0.00 0.00 91 1019.1
20260831110604 71 137 2.0 6.0 0.00 0.00 0.00 91 1019.0
20260831110524 71 137 2.0 6.0 0.00 0.00 0.00 91 1019.0
20260831110403 71 141 2.0 7.0 0.00 0.00 0.00 91 1019.1
20260831110325 71 142 2.0 7.0 0.00 0.00 0.00 91 1019.0
20260831110203 71 144 2.0 7.0 0.00 0.00 0.00 91 1019.0
20260831110024 71 145 2.0 7.0 0.00 0.00 0.00 91 1018.9
20260831105903 71 146 2.0 7.0 0.00 0.00 0.00 91 1019.0
20260831105803 71 143 2.0 7.0 0.00 0.00 0.00 91 1019.0
20260831105725 71 146 2.0 7.0 0.00 0.00 0.00 91 1018.9
20260831105625 71 143 1.0 7.0 0.00 0.00 0.00 91 1019.0
20260831105504 71 142 1.0 7.0 0.00 0.00 0.00 91 1019.0
20260831105403 71 142 1.0 7.0 0.00 0.00 0.00 91 1018.9
20260831105306 71 140 1.0 6.0 0.00 0.00 0.00 91 1019.0
20260831105204 71 138 1.0 6.0 0.00 0.00 0.00 91 1019.0
20260831105103 71 136 1.0 4.0 0.00 0.00 0.00 91 1019.0
20260831105024 71 135 1.0 4.0 0.00 0.00 0.00 91 1018.8
20260831104903 71 133 1.0 4.0 0.00 0.00 0.00 91 1018.7
20260831104824 71 134 2.0 7.0 0.00 0.00 0.00 91 1018.7
20260831104704 71 131 2.0 7.0 0.00 0.00 0.00 91 1018.7
20260831104604 71 133 2.0 7.0 0.00 0.00 0.00 91 1018.7
20260831104503 71 136 2.0 7.0 0.00 0.00 0.00 91 1018.9
20260831104403 71 136 2.0 7.0 0.00 0.00 0.00 91 1018.7
20260831104304 71 136 2.0 7.0 0.00 0.00 0.00 91 1018.6
20260831104203 71 134 2.0 7.0 0.00 0.00 0.00 91 1018.7
20260831104103 71 136 2.0 7.0 0.00 0.00 0.00 91 1018.7
20260831104003 71 136 2.0 7.0 0.00 0.00 0.00 91 1018.8
20260831103904 71 135 2.0 7.0 0.00 0.00 0.00 91 1018.5
20260831103803 71 134 2.0 6.0 0.00 0.00 0.00 91 1018.8
20260831103703 71 133 2.0 6.0 0.00 0.00 0.00 91 1018.9
20260831103603 71 130 2.0 6.0 0.00 0.00 0.00 91 1018.8
20260831103503 71 128 2.0 6.0 0.00 0.00 0.00 91 1018.8
20260831103403 71 130 2.0 8.0 0.00 0.00 0.00 91 1018.6
20260831103324 71 131 3.0 8.0 0.00 0.00 0.00 91 1018.6
20260831103203 71 132 3.0 8.0 0.00 0.00 0.00 91 1018.6
20260831103104 71 131 3.0 8.0 0.00 0.00 0.00 91 1018.6
20260831103003 71 132 3.0 8.0 0.00 0.00 0.00 91 1018.6
20260831102903 71 131 3.0 8.0 0.00 0.00 0.00 91 1018.6
20260831102804 71 133 3.0 8.0 0.00 0.00 0.00 91 1018.5
20260831102704 71 133 3.0 8.0 0.00 0.00 0.00 91 1018.6
20260831102625 71 134 3.0 8.0 0.00 0.00 0.00 91 1018.6
20260831102503 71 136 3.0 8.0 0.00 0.00 0.00 91 1018.5
20260831102404 71 134 3.0 8.0 0.00 0.00 0.00 91 1018.5
20260831102305 71 134 2.0 8.0 0.00 0.00 0.00 91 1018.6
20260831102203 71 135 2.0 8.0 0.00 0.00 0.00 91 1018.6
20260831102124 71 135 2.0 8.0 0.00 0.00 0.00 91 1018.5
20260831102024 71 131 2.0 8.0 0.00 0.00 0.00 91 1018.5
20260831101904 71 130 2.0 7.0 0.00 0.00 0.00 91 1018.4
20260831101803 71 125 1.0 4.0 0.00 0.00 0.00 91 1018.7
20260831101704 71 125 1.0 4.0 0.00 0.00 0.00 91 1018.5
20260831101603 71 123 2.0 4.0 0.00 0.00 0.00 91 1018.6
20260831101504 71 123 1.0 4.0 0.00 0.00 0.00 91 1018.4
20260831101403 71 122 1.0 4.0 0.00 0.00 0.00 91 1018.4
20260831101303 71 122 1.0 7.0 0.00 0.00 0.00 91 1018.5
20260831101203 71 121 2.0 7.0 0.00 0.00 0.00 91 1018.5
20260831101103 71 122 2.0 7.0 0.00 0.00 0.00 91 1018.6
20260831101024 71 124 2.0 7.0 0.00 0.00 0.00 91 1018.7
20260831100903 71 126 1.0 7.0 0.00 0.00 0.00 91 1018.6
20260831100803 71 130 1.0 7.0 0.00 0.00 0.00 91 1018.5
20260831100704 71 133 2.0 7.0 0.00 0.00 0.00 91 1018.6
20260831100604 71 134 1.0 7.0 0.00 0.00 0.00 91 1018.8
20260831100524 71 137 2.0 7.0 0.00 0.00 0.00 91 1018.5
20260831100403 71 137 2.0 7.0 0.00 0.00 0.00 91 1018.6
20260831100303 71 136 2.0 7.0 0.00 0.00 0.00 91 1018.5
20260831100203 71 137 2.0 7.0 0.00 0.00 0.00 91 1018.5
20260831100104 71 137 2.0 7.0 0.00 0.00 0.00 91 1018.6
20260831100003 71 135 2.0 7.0 0.00 0.00 0.00 91 1018.5
20260831095925 71 134 2.0 7.0 0.00 0.00 0.00 91 1018.6
20260831095804 71 131 2.0 7.0 0.00 0.00 0.00 91 1018.5
20260831095724 71 129 2.0 7.0 0.00 0.00 0.00 91 1018.4
20260831095624 71 129 2.0 7.0 0.00 0.00 0.00 91 1018.6
20260831095525 71 126 2.0 6.0 0.00 0.00 0.00 91 1018.5
20260831095404 71 125 2.0 6.0 0.00 0.00 0.00 91 1018.5
20260831095325 71 124 1.0 6.0 0.00 0.00 0.00 92 1018.6
20260831095204 71 121 1.0 4.0 0.00 0.00 0.00 92 1018.5
20260831095124 71 122 1.0 4.0 0.00 0.00 0.00 92 1018.5
20260831095004 71 123 1.0 4.0 0.00 0.00 0.00 92 1018.6
20260831094904 71 123 1.0 4.0 0.00 0.00 0.00 92 1018.6
20260831094824 71 124 1.0 4.0 0.00 0.00 0.00 92 1018.4
20260831094704 71 126 1.0 4.0 0.00 0.00 0.00 92 1018.5
20260831094603 71 125 1.0 4.0 0.00 0.00 0.00 92 1018.6
20260831094524 71 127 1.0 4.0 0.00 0.00 0.00 92 1018.4
20260831094403 71 126 1.0 3.0 0.00 0.00 0.00 92 1018.4
20260831094303 71 125 1.0 3.0 0.00 0.00 0.00 92 1018.7
20260831094204 71 128 1.0 4.0 0.00 0.00 0.00 92 1018.5
20260831094124 71 127 1.0 4.0 0.00 0.00 0.00 92 1018.4
20260831094003 71 127 1.0 4.0 0.00 0.00 0.00 92 1018.3
20260831093903 71 129 1.0 4.0 0.00 0.00 0.00 92 1018.6
20260831093803 71 127 1.0 4.0 0.00 0.00 0.00 92 1018.6
20260831093703 71 130 1.0 4.0 0.00 0.00 0.00 92 1018.5
20260831093604 71 130 1.0 4.0 0.00 0.00 0.00 92 1018.5
20260831093524 71 130 2.0 4.0 0.00 0.00 0.00 92 1018.5
20260831093403 71 132 2.0 4.0 0.00 0.00 0.00 92 1018.5
20260831093325 71 133 2.0 4.0 0.00 0.00 0.00 92 1018.6
20260831093203 71 129 1.0 4.0 0.00 0.00 0.00 92 1018.5
20260831093124 71 130 2.0 4.0 0.00 0.00 0.00 92 1018.6
20260831093003 71 131 1.0 4.0 0.00 0.00 0.00 92 1018.9
20260831092903 71 129 1.0 4.0 0.00 0.00 0.00 92 1018.6
20260831092804 71 130 1.0 4.0 0.00 0.00 0.00 92 1018.4
20260831092724 71 129 1.0 4.0 0.00 0.00 0.00 92 1018.7
20260831092625 71 128 1.0 4.0 0.00 0.00 0.00 92 1018.7
20260831092503 71 126 1.0 4.0 0.00 0.00 0.00 92 1018.5
20260831092403 71 123 1.0 4.0 0.00 0.00 0.00 92 1018.6
20260831092306 71 125 1.0 4.0 0.00 0.00 0.00 92 1018.6
20260831092204 71 129 1.0 4.0 0.00 0.00 0.00 92 1018.6
20260831092103 71 131 1.0 4.0 0.00 0.00 0.00 92 1018.6
20260831092004 71 133 1.0 4.0 0.00 0.00 0.00 92 1018.7
20260831091904 71 132 1.0 4.0 0.00 0.00 0.00 92 1018.5
20260831091803 71 136 1.0 4.0 0.00 0.00 0.00 92 1018.6
20260831091703 71 137 1.0 4.0 0.00 0.00 0.00 92 1018.7
20260831091603 71 138 1.0 4.0 0.00 0.00 0.00 92 1018.6
20260831091503 71 137 1.0 4.0 0.00 0.00 0.00 92 1018.9
20260831091403 71 135 1.0 4.0 0.00 0.00 0.00 92 1018.5
20260831091304 71 134 1.0 4.0 0.00 0.00 0.00 92 1018.6
20260831091204 71 135 1.0 4.0 0.00 0.00 0.00 92 1018.8
20260831091103 71 134 1.0 4.0 0.00 0.00 0.00 92 1018.6
20260831091024 71 134 1.0 4.0 0.00 0.00 0.00 92 1018.7
20260831090903 71 132 1.0 4.0 0.00 0.00 0.00 92 1018.6
20260831090803 71 128 1.0 4.0 0.00 0.00 0.00 92 1018.8
20260831090704 71 127 1.0 4.0 0.00 0.00 0.00 92 1018.6
20260831090603 71 127 1.0 4.0 0.00 0.00 0.00 92 1018.6
20260831090504 71 127 1.0 4.0 0.00 0.00 0.00 92 1018.8
20260831090404 70 128 1.0 4.0 0.00 0.00 0.00 92 1018.8
20260831090303 70 129 1.0 4.0 0.00 0.00 0.00 92 1018.6
20260831090225 70 129 1.0 4.0 0.00 0.00 0.00 92 1018.7
20260831090003 70 128 1.0 2.0 0.00 0.00 0.00 93 1018.6
20260831085903 70 132 1.0 2.0 0.00 0.00 0.00 93 1018.7
20260831085803 70 131 1.0 4.0 0.00 0.00 0.00 93 1018.8
20260831085724 70 132 1.0 4.0 0.00 0.00 0.00 93 1018.8
20260831085604 70 132 1.0 4.0 0.00 0.00 0.00 93 1018.7
20260831085503 70 132 1.0 4.0 0.00 0.00 0.00 93 1018.6
20260831085404 70 135 1.0 4.0 0.00 0.00 0.00 93 1018.6
20260831085306 70 135 1.0 4.0 0.00 0.00 0.00 93 1018.8
20260831085204 70 135 1.0 4.0 0.00 0.00 0.00 93 1018.7
20260831085103 70 134 1.0 4.0 0.00 0.00 0.00 93 1018.6
20260831085003 70 135 1.0 4.0 0.00 0.00 0.00 93 1018.5
20260831084904 70 133 1.0 4.0 0.00 0.00 0.00 93 1018.5
20260831084803 70 134 0.0 3.0 0.00 0.00 0.00 93 1018.6
20260831084703 70 136 1.0 3.0 0.00 0.00 0.00 93 1018.8
20260831084603 70 134 1.0 3.0 0.00 0.00 0.00 93 1018.7
20260831084524 70 133 1.0 3.0 0.00 0.00 0.00 93 1018.5
20260831084403 70 131 1.0 3.0 0.00 0.00 0.00 93 1018.5
20260831084304 70 127 0.0 3.0 0.00 0.00 0.00 93 1018.5
20260831084204 70 126 0.0 3.0 0.00 0.00 0.00 93 1018.6
20260831084104 70 130 1.0 3.0 0.00 0.00 0.00 93 1018.6
20260831084003 70 129 1.0 3.0 0.00 0.00 0.00 93 1018.5
20260831083904 70 128 1.0 3.0 0.00 0.00 0.00 93 1018.5
20260831083804 70 128 1.0 3.0 0.00 0.00 0.00 93 1018.6
20260831083703 70 125 1.0 3.0 0.00 0.00 0.00 93 1018.5
20260831083603 70 126 1.0 3.0 0.00 0.00 0.00 93 1018.5
20260831083503 70 129 1.0 3.0 0.00 0.00 0.00 93 1018.5
20260831083403 70 128 1.0 3.0 0.00 0.00 0.00 93 1018.7
20260831083304 70 125 1.0 3.0 0.00 0.00 0.00 93 1018.7
20260831083203 70 125 1.0 3.0 0.00 0.00 0.00 93 1018.6
20260831083124 70 124 1.0 3.0 0.00 0.00 0.00 93 1018.6
20260831083004 70 120 1.0 3.0 0.00 0.00 0.00 93 1018.6
20260831082904 70 122 1.0 3.0 0.00 0.00 0.00 93 1018.8
20260831082803 70 122 1.0 3.0 0.00 0.00 0.00 93 1018.7
20260831082704 70 123 1.0 3.0 0.00 0.00 0.00 93 1018.6
20260831082603 70 123 1.0 2.0 0.00 0.00 0.00 93 1018.6
20260831082504 70 116 0.0 2.0 0.00 0.00 0.00 93 1018.6
20260831082404 70 115 0.0 2.0 0.00 0.00 0.00 93 1018.6
20260831082324 70 114 0.0 2.0 0.00 0.00 0.00 93 1018.7
20260831082225 70 124 0.0 2.0 0.00 0.00 0.00 93 1018.4
20260831082103 70 127 0.0 2.0 0.00 0.00 0.00 93 1018.6
20260831082004 70 125 0.0 1.0 0.00 0.00 0.00 93 1018.6
20260831081903 70 125 0.0 1.0 0.00 0.00 0.00 93 1018.7
20260831081804 70 125 0.0 1.0 0.00 0.00 0.00 93 1018.6
20260831081704 70 123 0.0 1.0 0.00 0.00 0.00 93 1018.5
20260831081604 70 120 0.0 1.0 0.00 0.00 0.00 93 1018.6
20260831081504 70 123 0.0 2.0 0.00 0.00 0.00 93 1018.5
20260831081404 70 122 0.0 2.0 0.00 0.00 0.00 93 1018.6
20260831081324 70 120 0.0 2.0 0.00 0.00 0.00 93 1018.7
20260831081203 70 121 0.0 2.0 0.00 0.00 0.00 93 1018.5
20260831081104 70 120 0.0 2.0 0.00 0.00 0.00 93 1018.9
20260831081003 70 120 0.0 2.0 0.00 0.00 0.00 93 1018.7
20260831080904 70 120 0.0 2.0 0.00 0.00 0.00 93 1018.7
20260831080803 70 120 0.0 2.0 0.00 0.00 0.00 93 1018.6
20260831080703 70 121 0.0 2.0 0.00 0.00 0.00 93 1018.6
20260831080603 70 123 0.0 2.0 0.00 0.00 0.00 93 1018.6
20260831080524 70 120 0.0 1.0 0.00 0.00 0.00 93 1018.6
20260831080404 70 121 0.0 1.0 0.00 0.00 0.00 93 1018.5
20260831080303 70 123 0.0 1.0 0.00 0.00 0.00 93 1018.6
20260831080203 70 121 0.0 1.0 0.00 0.00 0.00 93 1018.6
20260831080003 70 122 0.0 1.0 0.00 0.00 0.00 93 1018.7
20260831075904 70 122 0.0 1.0 0.00 0.00 0.00 93 1018.5
20260831075804 70 122 0.0 1.0 0.00 0.00 0.00 93 1018.9
20260831075725 70 121 0.0 1.0 0.00 0.00 0.00 93 1018.6
20260831075603 70 123 0.0 2.0 0.00 0.00 0.00 93 1018.8
20260831075503 70 120 0.0 2.0 0.00 0.00 0.00 93 1018.5
20260831075404 70 119 0.0 2.0 0.00 0.00 0.00 93 1018.6
20260831075306 70 121 0.0 2.0 0.00 0.00 0.00 93 1018.7
20260831075224 70 123 0.0 2.0 0.00 0.00 0.00 93 1018.7
20260831075103 70 122 0.0 2.0 0.00 0.00 0.00 93 1018.8
20260831075003 70 122 0.0 2.0 0.00 0.00 0.00 93 1018.5
20260831074904 70 124 1.0 3.0 0.00 0.00 0.00 93 1018.7
20260831074803 70 124 1.0 3.0 0.00 0.00 0.00 93 1018.5
20260831074703 70 123 1.0 3.0 0.00 0.00 0.00 93 1018.6
20260831074603 70 123 1.0 3.0 0.00 0.00 0.00 93 1018.7
20260831074524 70 123 1.0 3.0 0.00 0.00 0.00 93 1018.6
20260831074403 70 125 1.0 3.0 0.00 0.00 0.00 93 1018.5
20260831074324 70 126 1.0 3.0 0.00 0.00 0.00 93 1018.5
20260831074224 70 126 1.0 3.0 0.00 0.00 0.00 93 1018.5
20260831074104 70 125 1.0 3.0 0.00 0.00 0.00 93 1018.5
20260831074003 70 125 1.0 3.0 0.00 0.00 0.00 93 1018.6
20260831073904 70 123 1.0 3.0 0.00 0.00 0.00 93 1018.4
20260831073804 70 121 1.0 3.0 0.00 0.00 0.00 93 1018.7
20260831073704 70 122 1.0 3.0 0.00 0.00 0.00 93 1018.6
20260831073603 70 123 1.0 3.0 0.00 0.00 0.00 93 1018.7
20260831073524 70 124 1.0 3.0 0.00 0.00 0.00 93 1018.5
20260831073403 70 124 1.0 3.0 0.00 0.00 0.00 93 1018.5
20260831073304 70 123 1.0 3.0 0.00 0.00 0.00 93 1018.7
20260831073203 70 123 1.0 3.0 0.00 0.00 0.00 93 1018.6
20260831073103 70 123 1.0 3.0 0.00 0.00 0.00 93 1018.6
20260831073003 70 123 1.0 3.0 0.00 0.00 0.00 93 1018.7
20260831072904 70 123 1.0 3.0 0.00 0.00 0.00 93 1018.7
20260831072803 70 126 1.0 3.0 0.00 0.00 0.00 93 1018.7
20260831072703 70 127 1.0 2.0 0.00 0.00 0.00 93 1018.7
20260831072624 70 124 0.0 2.0 0.00 0.00 0.00 93 1018.6
20260831072503 70 123 0.0 2.0 0.00 0.00 0.00 93 1018.7
20260831072404 70 116 0.0 1.0 0.00 0.00 0.00 93 1018.9
20260831072306 70 115 0.0 2.0 0.00 0.00 0.00 93 1018.8
20260831072203 70 118 0.0 2.0 0.00 0.00 0.00 93 1019.0
20260831072104 70 118 0.0 2.0 0.00 0.00 0.00 93 1018.9
20260831072003 70 121 1.0 2.0 0.00 0.00 0.00 93 1018.9
20260831071904 70 121 1.0 2.0 0.00 0.00 0.00 93 1018.8
20260831071825 70 121 0.0 2.0 0.00 0.00 0.00 93 1018.7
20260831071724 70 120 1.0 2.0 0.00 0.00 0.00 93 1018.9
20260831071603 70 120 0.0 2.0 0.00 0.00 0.00 93 1018.7
20260831071503 70 120 1.0 2.0 0.00 0.00 0.00 93 1019.0
20260831071403 70 124 1.0 2.0 0.00 0.00 0.00 93 1018.8
20260831071305 70 125 1.0 3.0 0.00 0.00 0.00 93 1018.9
20260831071203 70 124 1.0 3.0 0.00 0.00 0.00 93 1018.7
20260831071104 70 125 1.0 3.0 0.00 0.00 0.00 93 1018.8
20260831071003 70 124 0.0 3.0 0.00 0.00 0.00 93 1018.8
20260831070904 70 123 0.0 3.0 0.00 0.00 0.00 93 1018.7
20260831070803 70 122 0.0 3.0 0.00 0.00 0.00 93 1018.8
20260831070725 70 122 1.0 3.0 0.00 0.00 0.00 93 1018.8
20260831070625 70 122 1.0 3.0 0.00 0.00 0.00 93 1018.8
20260831070504 70 124 1.0 3.0 0.00 0.00 0.00 93 1018.8
20260831070404 70 123 1.0 3.0 0.00 0.00 0.00 93 1018.7
20260831070324 70 122 1.0 3.0 0.00 0.00 0.00 93 1018.9
20260831070204 70 119 1.0 3.0 0.00 0.00 0.00 93 1018.8
20260831070104 70 119 1.0 3.0 0.00 0.00 0.00 93 1018.9
20260831070003 70 119 1.0 3.0 0.00 0.00 0.00 93 1018.8
20260831065904 70 118 1.0 3.0 0.00 0.00 0.00 93 1018.8
20260831065804 70 121 1.0 3.0 0.00 0.00 0.00 93 1019.1
20260831065704 70 122 1.0 3.0 0.00 0.00 0.00 93 1019.0
20260831065603 70 123 1.0 3.0 0.00 0.00 0.00 93 1018.9
20260831065503 70 122 1.0 3.0 0.00 0.00 0.00 93 1018.9
20260831065403 70 122 1.0 3.0 0.00 0.00 0.00 93 1018.9
20260831065306 70 122 1.0 3.0 0.00 0.00 0.00 93 1018.9
20260831065203 70 124 1.0 3.0 0.00 0.00 0.00 93 1019.0
20260831065124 70 124 1.0 3.0 0.00 0.00 0.00 93 1018.9
20260831065003 70 127 1.0 3.0 0.00 0.00 0.00 93 1018.9
20260831064924 70 128 1.0 3.0 0.00 0.00 0.00 93 1019.0
20260831064803 70 127 1.0 3.0 0.00 0.00 0.00 93 1018.9
20260831064704 70 128 1.0 3.0 0.00 0.00 0.00 93 1019.2
20260831064603 70 126 1.0 3.0 0.00 0.00 0.00 93 1019.1
20260831064503 70 126 1.0 3.0 0.00 0.00 0.00 93 1019.1
20260831064404 70 124 1.0 3.0 0.00 0.00 0.00 93 1019.0
20260831064324 70 125 1.0 3.0 0.00 0.00 0.00 93 1019.0
20260831064203 70 126 1.0 3.0 0.00 0.00 0.00 93 1019.0
20260831064104 70 128 1.0 3.0 0.00 0.00 0.00 93 1019.1
20260831064024 70 128 1.0 3.0 0.00 0.00 0.00 93 1019.1
20260831063924 70 126 1.0 3.0 0.00 0.00 0.00 93 1019.1
20260831063803 70 128 0.0 3.0 0.00 0.00 0.00 93 1018.9
20260831063703 70 127 0.0 2.0 0.00 0.00 0.00 93 1019.1
20260831063603 70 129 0.0 2.0 0.00 0.00 0.00 93 1019.1
20260831063525 70 130 0.0 2.0 0.00 0.00 0.00 93 1019.0
20260831063404 70 132 0.0 2.0 0.00 0.00 0.00 93 1019.0
20260831063303 70 134 0.0 2.0 0.00 0.00 0.00 93 1019.2
20260831063224 70 131 0.0 2.0 0.00 0.00 0.00 93 1018.9
20260831063104 70 126 0.0 2.0 0.00 0.00 0.00 93 1019.3
20260831063025 70 136 0.0 3.0 0.00 0.00 0.00 93 1019.1
20260831062904 70 144 0.0 3.0 0.00 0.00 0.00 92 1019.0
20260831062803 70 140 0.0 3.0 0.00 0.00 0.00 92 1018.9
20260831062725 70 140 0.0 3.0 0.00 0.00 0.00 92 1019.1
20260831062603 70 140 0.0 3.0 0.00 0.00 0.00 92 1019.1
20260831062504 70 138 0.0 3.0 0.00 0.00 0.00 92 1019.0
20260831062404 70 137 0.0 3.0 0.00 0.00 0.00 92 1019.2
20260831062305 70 133 0.0 3.0 0.00 0.00 0.00 92 1019.0
20260831062203 70 133 1.0 3.0 0.00 0.00 0.00 92 1019.0
20260831062103 70 131 1.0 3.0 0.00 0.00 0.00 92 1019.2
20260831062003 70 122 0.0 2.0 0.00 0.00 0.00 92 1019.1
20260831061924 70 119 0.0 2.0 0.00 0.00 0.00 92 1019.1
20260831061825 70 123 0.0 3.0 0.00 0.00 0.00 92 1019.1
20260831061703 70 124 1.0 4.0 0.00 0.00 0.00 92 1019.0
20260831061624 70 124 1.0 4.0 0.00 0.00 0.00 92 1019.0
20260831061503 70 124 1.0 4.0 0.00 0.00 0.00 92 1019.2
20260831061404 70 125 1.0 4.0 0.00 0.00 0.00 92 1019.2
20260831061304 70 126 1.0 4.0 0.00 0.00 0.00 92 1019.1
20260831061224 70 134 1.0 6.0 0.00 0.00 0.00 92 1019.0
20260831061124 70 136 1.0 7.0 0.00 0.00 0.00 92 1019.0
20260831061004 70 136 2.0 7.0 0.00 0.00 0.00 92 1019.0
20260831060924 70 134 2.0 7.0 0.00 0.00 0.00 92 1019.0
20260831060804 70 133 2.0 7.0 0.00 0.00 0.00 92 1019.0
20260831060724 70 132 2.0 7.0 0.00 0.00 0.00 92 1019.1
20260831060604 70 133 2.0 7.0 0.00 0.00 0.00 92 1019.0
20260831060504 70 131 2.0 7.0 0.00 0.00 0.00 92 1018.9
20260831060424 70 132 3.0 7.0 0.00 0.00 0.00 92 1018.9
20260831060303 70 131 3.0 7.0 0.00 0.00 0.00 92 1018.8
20260831060204 70 128 3.0 7.0 0.00 0.00 0.00 92 1018.6
20260831060104 70 127 2.0 6.0 0.00 0.00 0.00 92 1018.9
20260831060004 70 125 2.0 6.0 0.00 0.00 0.00 92 1018.8
20260831055904 70 129 2.0 6.0 0.00 0.00 0.00 92 1019.0
20260831055804 70 132 2.0 6.0 0.00 0.00 0.00 92 1018.9
20260831055704 70 132 2.0 6.0 0.00 0.00 0.00 92 1018.9
20260831055603 70 135 2.0 6.0 0.00 0.00 0.00 92 1019.0
20260831055504 70 138 2.0 6.0 0.00 0.00 0.00 92 1019.0
20260831055403 70 137 2.0 6.0 0.00 0.00 0.00 92 1019.1
20260831055306 70 139 2.0 6.0 0.00 0.00 0.00 92 1019.1
20260831055225 70 140 2.0 6.0 0.00 0.00 0.00 92 1019.0
20260831055104 70 140 2.0 6.0 0.00 0.00 0.00 92 1019.1
20260831055003 70 140 2.0 6.0 0.00 0.00 0.00 92 1019.2
20260831054904 70 138 2.0 6.0 0.00 0.00 0.00 92 1019.0
20260831054803 70 132 2.0 6.0 0.00 0.00 0.00 92 1019.2
20260831054703 70 132 2.0 6.0 0.00 0.00 0.00 92 1019.0
20260831054624 70 129 2.0 6.0 0.00 0.00 0.00 92 1019.1
20260831054503 70 131 2.0 6.0 0.00 0.00 0.00 92 1019.2
20260831054403 70 130 2.0 6.0 0.00 0.00 0.00 92 1019.1
20260831054304 70 129 2.0 6.0 0.00 0.00 0.00 92 1019.3
20260831054204 70 128 2.0 6.0 0.00 0.00 0.00 92 1019.3
20260831054124 70 127 2.0 6.0 0.00 0.00 0.00 92 1019.2
20260831054003 70 129 2.0 4.0 0.00 0.00 0.00 92 1019.0
20260831053903 70 130 2.0 4.0 0.00 0.00 0.00 92 1019.2
20260831053806 70 130 2.0 4.0 0.00 0.00 0.00 92 1019.2
20260831053703 70 131 2.0 4.0 0.00 0.00 0.00 92 1019.4
20260831053604 70 132 2.0 4.0 0.00 0.00 0.00 92 1019.1
20260831053504 70 129 2.0 4.0 0.00 0.00 0.00 92 1019.2
20260831053403 70 131 2.0 4.0 0.00 0.00 0.00 92 1019.2
20260831053304 70 128 2.0 4.0 0.00 0.00 0.00 92 1019.3
20260831053224 70 128 2.0 4.0 0.00 0.00 0.00 92 1019.2
20260831053103 70 132 2.0 4.0 0.00 0.00 0.00 92 1019.4
20260831053003 70 130 2.0 4.0 0.00 0.00 0.00 92 1019.3
20260831052904 70 131 2.0 4.0 0.00 0.00 0.00 92 1019.4
20260831052803 70 135 2.0 4.0 0.00 0.00 0.00 92 1019.2
20260831052703 70 135 2.0 4.0 0.00 0.00 0.00 92 1019.2
20260831052603 70 127 2.0 4.0 0.00 0.00 0.00 92 1019.2
20260831052503 70 129 2.0 4.0 0.00 0.00 0.00 92 1019.2
20260831052403 70 128 2.0 4.0 0.00 0.00 0.00 92 1019.2
20260831052306 70 133 2.0 4.0 0.00 0.00 0.00 92 1019.0